» Menu

» Login

» OB/Site News

Omerta News Integration
Comments: 56 - Views: 41844 - Votes: 0
War rating
Comments: 10 - Views: 22247 - Votes: 4
Reporters Wanted!
Comments: 2 - Views: 16466 - Votes: 3
» Articles
Date Comments Rating

General Comments & Major Rumors
Comments: 56,923 - Views: 11,812,890 - Votes: 81
23-09 Reset → 30 September 2022, Friday → 12:00 OT
Comments: 36 - Views: 2,741 - Votes: 0
30-09 Welcome to Round #40!
Comments: 2 - Views: 288 - Votes: 0
19-09 Congratulations Reichsthaler!
Comments: 0 - Views: 146 - Votes: 0
01-09 Not Penny's boat..
Comments: 72 - Views: 2,762 - Votes: 0
21-08 First Family!
Comments: 6 - Views: 516 - Votes: 0
12-08 Welcome to Round #39
Comments: 5 - Views: 993 - Votes: 0
03-08 Reset → 12 August 2022, Friday → 10:00 OT
Comments: 17 - Views: 1,570 - Votes: 0
27-07 Congratulations Vengeance!
Comments: 8 - Views: 659 - Votes: 0
22-07 Plating War
Comments: 27 - Views: 2,885 - Votes: 0
go back
go forward
» Barafranca News

No mafia news available!
» Online last 15 minutes

Guests: 313
Total members: 3658
Online: 0 (0%)
Members:
» Targets?
Killskill?
NameRankLast Online
ClitycalEmpty Suit19/11/2022 19:33:04 OT (15D 14H 41M ago)
ItachiEmpty Suit19/11/2022 20:03:05 OT (15D 14H 11M ago)
AsdfqwerEmpty Suit19/11/2022 20:20:19 OT (15D 13H 54M ago)
KicjaEmpty Suit19/11/2022 20:35:06 OT (15D 13H 39M ago)
CarussoEmpty Suit19/11/2022 22:18:15 OT (15D 11H 56M ago)
CyrusEmpty Suit19/11/2022 23:48:13 OT (15D 10H 26M ago)
ArwenEmpty Suit20/11/2022 01:58:12 OT (15D 8H 16M ago)
GabiEmpty Suit20/11/2022 08:12:15 OT (15D 2H 2M ago)
HhhyEmpty Suit20/11/2022 08:20:14 OT (15D 1H 54M ago)
TegmenEmpty Suit20/11/2022 08:55:05 OT (15D 1H 19M ago)
RteEmpty Suit20/11/2022 10:34:15 OT (14D 23H 40M ago)
HostEmpty Suit20/11/2022 11:11:06 OT (14D 23H 3M ago)
JopieEmpty Suit20/11/2022 11:16:17 OT (14D 22H 58M ago)
LadymmEmpty Suit20/11/2022 11:51:08 OT (14D 22H 23M ago)
KamiEmpty Suit20/11/2022 12:00:32 OT (14D 22H 13M ago)
TestareEmpty Suit20/11/2022 13:36:16 OT (14D 20H 38M ago)
JoyceEmpty Suit20/11/2022 13:50:19 OT (14D 20H 24M ago)
DoddigEmpty Suit20/11/2022 14:31:05 OT (14D 19H 43M ago)
AsdasssEmpty Suit20/11/2022 15:41:05 OT (14D 18H 33M ago)
DarkevilEmpty Suit20/11/2022 16:24:20 OT (14D 17H 50M ago)
ScarecrowEmpty Suit20/11/2022 16:47:06 OT (14D 17H 27M ago)
VsfexpressEmpty Suit20/11/2022 17:10:15 OT (14D 17H 4M ago)
VandalmageeEmpty Suit20/11/2022 17:26:18 OT (14D 16H 48M ago)
NamistainEmpty Suit20/11/2022 18:28:18 OT (14D 15H 46M ago)
KkopEmpty Suit20/11/2022 18:47:06 OT (14D 15H 27M ago)
KapiEmpty Suit20/11/2022 18:56:19 OT (14D 15H 18M ago)
BardakEmpty Suit20/11/2022 19:18:24 OT (14D 14H 56M ago)
SiseEmpty Suit20/11/2022 19:24:19 OT (14D 14H 50M ago)
SpruitEmpty Suit20/11/2022 22:08:16 OT (14D 12H 6M ago)
ChicooEmpty Suit20/11/2022 22:22:14 OT (14D 11H 52M ago)
EhremenEmpty Suit20/11/2022 23:15:05 OT (14D 10H 59M ago)
BigbrazzerEmpty Suit20/11/2022 23:34:12 OT (14D 10H 40M ago)
QuimdalanchaEmpty Suit21/11/2022 00:56:13 OT (14D 9H 18M ago)
AlexnightEmpty Suit21/11/2022 01:30:14 OT (14D 8H 44M ago)
MorgankaneEmpty Suit21/11/2022 04:50:11 OT (14D 5H 24M ago)
BobyfleyEmpty Suit21/11/2022 06:26:09 OT (14D 3H 48M ago)
UziEmpty Suit21/11/2022 09:56:22 OT (14D 0H 18M ago)
YyEmpty Suit21/11/2022 10:33:05 OT (13D 23H 41M ago)
ThunderaceEmpty Suit21/11/2022 11:53:06 OT (13D 22H 21M ago)
SinnarEmpty Suit21/11/2022 13:18:21 OT (13D 20H 56M ago)
BooooEmpty Suit21/11/2022 15:47:05 OT (13D 18H 27M ago)
AnimaperdutaEmpty Suit21/11/2022 18:05:08 OT (13D 16H 9M ago)
RainoEmpty Suit21/11/2022 18:33:06 OT (13D 15H 41M ago)
KingkoqjaEmpty Suit21/11/2022 18:59:07 OT (13D 15H 15M ago)
GrimEmpty Suit21/11/2022 20:20:30 OT (13D 13H 53M ago)
DrowsyEmpty Suit21/11/2022 20:32:24 OT (13D 13H 42M ago)
OssyEmpty Suit22/11/2022 06:21:05 OT (13D 3H 53M ago)
TzuzhaiEmpty Suit22/11/2022 07:21:05 OT (13D 2H 53M ago)
SocialEmpty Suit22/11/2022 07:52:13 OT (13D 2H 22M ago)
MatteoEmpty Suit22/11/2022 11:47:08 OT (12D 22H 27M ago)
JagermeisterEmpty Suit22/11/2022 14:17:07 OT (12D 19H 57M ago)
JackieblueEmpty Suit22/11/2022 14:53:07 OT (12D 19H 21M ago)
BockEmpty Suit22/11/2022 16:23:08 OT (12D 17H 51M ago)
HahagameEmpty Suit22/11/2022 19:00:34 OT (12D 15H 13M ago)
LazishEmpty Suit22/11/2022 20:03:08 OT (12D 14H 11M ago)
FghdhEmpty Suit22/11/2022 22:00:23 OT (12D 12H 14M ago)
JimboslicesrEmpty Suit23/11/2022 00:41:05 OT (12D 9H 33M ago)
RagnarokEmpty Suit23/11/2022 05:52:13 OT (12D 4H 22M ago)
LordloneEmpty Suit23/11/2022 10:35:06 OT (11D 23H 39M ago)
BrigasEmpty Suit23/11/2022 11:02:17 OT (11D 23H 12M ago)
BlitzEmpty Suit23/11/2022 11:09:08 OT (11D 23H 5M ago)
NeroEmpty Suit23/11/2022 11:55:15 OT (11D 22H 19M ago)
StratumehvnEmpty Suit23/11/2022 14:30:08 OT (11D 19H 44M ago)
MaxcadyEmpty Suit23/11/2022 17:02:12 OT (11D 17H 12M ago)
TommypurpleEmpty Suit23/11/2022 17:44:07 OT (11D 16H 30M ago)
WafflejackEmpty Suit23/11/2022 18:02:07 OT (11D 16H 12M ago)
KumassEmpty Suit23/11/2022 18:55:34 OT (11D 15H 18M ago)
SmaapmulpaapEmpty Suit23/11/2022 20:53:22 OT (11D 13H 21M ago)
TutsakEmpty Suit23/11/2022 21:33:18 OT (11D 12H 41M ago)
EndevorEmpty Suit23/11/2022 23:51:06 OT (11D 10H 23M ago)
OwlreedEmpty Suit24/11/2022 03:42:11 OT (11D 6H 32M ago)
WalkerEmpty Suit24/11/2022 07:22:12 OT (11D 2H 52M ago)
YuzEmpty Suit24/11/2022 09:47:07 OT (11D 0H 27M ago)
KiviEmpty Suit24/11/2022 09:47:07 OT (11D 0H 27M ago)
AduEmpty Suit24/11/2022 10:50:21 OT (10D 23H 24M ago)
FlavourzEmpty Suit24/11/2022 13:18:26 OT (10D 20H 56M ago)
NunezEmpty Suit24/11/2022 13:55:09 OT (10D 20H 19M ago)
SfrEmpty Suit24/11/2022 13:55:09 OT (10D 20H 19M ago)
UnglowEmpty Suit24/11/2022 16:52:25 OT (10D 17H 22M ago)
NorbalusEmpty Suit24/11/2022 17:00:36 OT (10D 17H 13M ago)
ErmisEmpty Suit24/11/2022 17:05:08 OT (10D 17H 9M ago)
PixxelEmpty Suit24/11/2022 17:15:08 OT (10D 16H 59M ago)
MisterbossEmpty Suit24/11/2022 17:44:35 OT (10D 16H 29M ago)
MxrEmpty Suit24/11/2022 19:32:17 OT (10D 14H 42M ago)
GodddEmpty Suit24/11/2022 21:08:14 OT (10D 13H 6M ago)
HazEmpty Suit24/11/2022 21:28:26 OT (10D 12H 46M ago)
ZilogrizEmpty Suit24/11/2022 22:14:21 OT (10D 12H 0M ago)
NowastetimeEmpty Suit24/11/2022 22:34:22 OT (10D 11H 40M ago)
AsaaEmpty Suit24/11/2022 23:01:06 OT (10D 11H 13M ago)
AlonewolfEmpty Suit25/11/2022 03:12:13 OT (10D 7H 2M ago)
MahjongEmpty Suit25/11/2022 06:22:16 OT (10D 3H 52M ago)
ModEmpty Suit25/11/2022 07:34:16 OT (10D 2H 40M ago)
PaytonEmpty Suit25/11/2022 08:18:21 OT (10D 1H 56M ago)
FavelaboyEmpty Suit25/11/2022 09:00:18 OT (10D 1H 14M ago)
GonziEmpty Suit25/11/2022 09:16:20 OT (10D 0H 58M ago)
AskerEmpty Suit25/11/2022 09:55:06 OT (10D 0H 19M ago)
DefianceEmpty Suit25/11/2022 10:54:20 OT (9D 23H 20M ago)
KkEmpty Suit25/11/2022 14:59:07 OT (9D 19H 15M ago)
BrankovichEmpty Suit25/11/2022 16:24:21 OT (9D 17H 50M ago)
LeinadEmpty Suit25/11/2022 16:32:18 OT (9D 17H 42M ago)
BbackEmpty Suit25/11/2022 17:08:18 OT (9D 17H 6M ago)
NyanEmpty Suit25/11/2022 17:46:23 OT (9D 16H 28M ago)
EnglishEmpty Suit25/11/2022 18:09:06 OT (9D 16H 5M ago)
OooEmpty Suit25/11/2022 18:25:04 OT (9D 15H 49M ago)
AgromorteEmpty Suit25/11/2022 18:25:04 OT (9D 15H 49M ago)
BenozanEmpty Suit25/11/2022 19:38:26 OT (9D 14H 36M ago)
WutruEmpty Suit25/11/2022 20:54:29 OT (9D 13H 19M ago)
DoenoeEmpty Suit25/11/2022 21:00:30 OT (9D 13H 13M ago)
LuchooEmpty Suit26/11/2022 03:27:05 OT (9D 6H 47M ago)
AdrianEmpty Suit26/11/2022 04:46:13 OT (9D 5H 28M ago)
DreamerEmpty Suit26/11/2022 05:35:06 OT (9D 4H 39M ago)
OkeyEmpty Suit26/11/2022 05:40:13 OT (9D 4H 34M ago)
ZeitEmpty Suit26/11/2022 09:08:19 OT (9D 1H 6M ago)
AbellaEmpty Suit26/11/2022 10:48:17 OT (8D 23H 26M ago)
MeliEmpty Suit26/11/2022 10:48:17 OT (8D 23H 26M ago)
SaadowEmpty Suit26/11/2022 11:31:06 OT (8D 22H 43M ago)
SirEmpty Suit26/11/2022 16:30:26 OT (8D 17H 44M ago)
HbsdbsEmpty Suit26/11/2022 18:00:21 OT (8D 16H 14M ago)
AsssssaEmpty Suit26/11/2022 18:31:06 OT (8D 15H 43M ago)
NanamiEmpty Suit26/11/2022 23:54:16 OT (8D 10H 20M ago)
AfasdEmpty Suit27/11/2022 00:13:05 OT (8D 10H 1M ago)
TestyEmpty Suit27/11/2022 00:40:13 OT (8D 9H 34M ago)
YargozEmpty Suit27/11/2022 01:10:15 OT (8D 9H 4M ago)
KizillEmpty Suit27/11/2022 03:59:05 OT (8D 6H 15M ago)
AnzxEmpty Suit27/11/2022 04:38:11 OT (8D 5H 36M ago)
TeegsEmpty Suit27/11/2022 08:50:18 OT (8D 1H 24M ago)
MustEmpty Suit27/11/2022 10:42:18 OT (7D 23H 32M ago)
JameesssEmpty Suit27/11/2022 14:45:07 OT (7D 19H 29M ago)
StitcherEmpty Suit27/11/2022 16:52:21 OT (7D 17H 22M ago)
MennEmpty Suit27/11/2022 17:31:10 OT (7D 16H 43M ago)
GigiEmpty Suit27/11/2022 17:42:33 OT (7D 16H 31M ago)
LuzziEmpty Suit27/11/2022 19:41:17 OT (7D 14H 33M ago)
BauerEmpty Suit27/11/2022 19:51:19 OT (7D 14H 23M ago)
AtesEmpty Suit27/11/2022 20:33:32 OT (7D 13H 40M ago)
DembayEmpty Suit27/11/2022 21:32:13 OT (7D 12H 42M ago)
NergalEmpty Suit27/11/2022 22:05:27 OT (7D 12H 8M ago)
KumasiEmpty Suit27/11/2022 22:59:14 OT (7D 11H 15M ago)
CiusuEmpty Suit28/11/2022 00:19:12 OT (7D 9H 55M ago)
JoeblobEmpty Suit28/11/2022 00:29:14 OT (7D 9H 45M ago)
HadenEmpty Suit28/11/2022 00:36:09 OT (7D 9H 38M ago)
JusttestingEmpty Suit28/11/2022 05:45:13 OT (7D 4H 29M ago)
ErkaEmpty Suit28/11/2022 08:04:15 OT (7D 2H 10M ago)
BhodadzEmpty Suit28/11/2022 09:04:19 OT (7D 1H 10M ago)
AndreasEmpty Suit28/11/2022 09:56:23 OT (7D 0H 18M ago)
MiyorelEmpty Suit28/11/2022 10:36:32 OT (6D 23H 37M ago)
CocoEmpty Suit28/11/2022 11:48:30 OT (6D 22H 25M ago)
VraagtekenEmpty Suit28/11/2022 12:30:19 OT (6D 21H 44M ago)
PropEmpty Suit28/11/2022 14:41:11 OT (6D 19H 33M ago)
FelicityEmpty Suit28/11/2022 15:34:24 OT (6D 18H 40M ago)
XyzallEmpty Suit28/11/2022 18:47:12 OT (6D 15H 27M ago)
GladiatoriEmpty Suit28/11/2022 18:56:20 OT (6D 15H 18M ago)
UdeadEmpty Suit28/11/2022 19:04:25 OT (6D 15H 10M ago)
SerdarEmpty Suit28/11/2022 19:24:30 OT (6D 14H 49M ago)
RadicalshadyEmpty Suit28/11/2022 19:38:20 OT (6D 14H 36M ago)
RasnnuEmpty Suit28/11/2022 21:30:22 OT (6D 12H 44M ago)
BajtyEmpty Suit28/11/2022 23:21:14 OT (6D 10H 53M ago)
AtyarrosuEmpty Suit29/11/2022 00:53:13 OT (6D 9H 21M ago)
VigorousEmpty Suit29/11/2022 00:53:13 OT (6D 9H 21M ago)
MylifeEmpty Suit29/11/2022 06:08:07 OT (6D 4H 6M ago)
TarEmpty Suit29/11/2022 06:15:16 OT (6D 3H 59M ago)
DreamEmpty Suit29/11/2022 07:17:14 OT (6D 2H 57M ago)
CamogaEmpty Suit29/11/2022 08:40:10 OT (6D 1H 34M ago)
CansinEmpty Suit29/11/2022 10:07:24 OT (6D 0H 7M ago)
AltarinogluEmpty Suit29/11/2022 10:40:10 OT (5D 23H 34M ago)
NjordEmpty Suit29/11/2022 11:25:10 OT (5D 22H 49M ago)
GariEmpty Suit29/11/2022 11:41:12 OT (5D 22H 33M ago)
AjsdEmpty Suit29/11/2022 13:32:24 OT (5D 20H 42M ago)
MaryssonEmpty Suit29/11/2022 13:48:24 OT (5D 20H 26M ago)
MafiamistukEmpty Suit29/11/2022 14:26:33 OT (5D 19H 47M ago)
ValenciaEmpty Suit29/11/2022 15:08:20 OT (5D 19H 6M ago)
KharneEmpty Suit29/11/2022 15:53:06 OT (5D 18H 21M ago)
ZizeEmpty Suit29/11/2022 15:53:06 OT (5D 18H 21M ago)
IruimEmpty Suit29/11/2022 16:00:22 OT (5D 18H 14M ago)
PablitoEmpty Suit29/11/2022 16:06:23 OT (5D 18H 8M ago)
EilishEmpty Suit29/11/2022 16:14:22 OT (5D 18H 0M ago)
AdonisEmpty Suit29/11/2022 16:22:22 OT (5D 17H 52M ago)
SeveriniEmpty Suit29/11/2022 16:38:22 OT (5D 17H 36M ago)
MaokiraEmpty Suit29/11/2022 16:45:08 OT (5D 17H 29M ago)
GufyEmpty Suit29/11/2022 16:56:17 OT (5D 17H 18M ago)
HazzardEmpty Suit29/11/2022 17:04:18 OT (5D 17H 10M ago)
KitsuneEmpty Suit29/11/2022 17:12:18 OT (5D 17H 2M ago)
FlintEmpty Suit29/11/2022 17:12:18 OT (5D 17H 2M ago)
DrakkooEmpty Suit29/11/2022 17:18:24 OT (5D 16H 56M ago)
NachtEmpty Suit29/11/2022 17:25:06 OT (5D 16H 49M ago)
CylEmpty Suit29/11/2022 17:25:06 OT (5D 16H 49M ago)
AzizaEmpty Suit29/11/2022 17:31:07 OT (5D 16H 43M ago)
BamEmpty Suit29/11/2022 17:36:26 OT (5D 16H 38M ago)
SheeraEmpty Suit29/11/2022 17:46:21 OT (5D 16H 28M ago)
JobineEmpty Suit29/11/2022 17:50:24 OT (5D 16H 24M ago)
DzeksportEmpty Suit29/11/2022 18:04:18 OT (5D 16H 10M ago)
PoseEmpty Suit29/11/2022 18:21:08 OT (5D 15H 53M ago)
BohsantoEmpty Suit29/11/2022 19:12:25 OT (5D 15H 2M ago)
DiamanteEmpty Suit29/11/2022 19:55:17 OT (5D 14H 19M ago)
FrancEmpty Suit29/11/2022 20:07:10 OT (5D 14H 7M ago)
BrokenbroEmpty Suit29/11/2022 21:16:21 OT (5D 12H 58M ago)
OkEmpty Suit29/11/2022 22:48:15 OT (5D 11H 26M ago)
HertjeEmpty Suit29/11/2022 22:48:15 OT (5D 11H 26M ago)
NacremEmpty Suit29/11/2022 23:52:15 OT (5D 10H 22M ago)
ZapEmpty Suit30/11/2022 00:30:13 OT (5D 9H 44M ago)
ChwEmpty Suit30/11/2022 01:01:06 OT (5D 9H 13M ago)
KetooEmpty Suit30/11/2022 01:14:16 OT (5D 9H 0M ago)
KiekenEmpty Suit30/11/2022 01:21:06 OT (5D 8H 53M ago)
DombiliEmpty Suit30/11/2022 01:49:04 OT (5D 8H 25M ago)
RenzoEmpty Suit30/11/2022 03:16:14 OT (5D 6H 58M ago)
DokuzmmEmpty Suit30/11/2022 07:42:22 OT (5D 2H 32M ago)
PerfectEmpty Suit30/11/2022 08:49:05 OT (5D 1H 25M ago)
JborgesEmpty Suit30/11/2022 09:06:20 OT (5D 1H 8M ago)
ShshshhshshsEmpty Suit30/11/2022 09:22:26 OT (5D 0H 52M ago)
AsadadEmpty Suit30/11/2022 09:27:07 OT (5D 0H 47M ago)
AhahhahahhahEmpty Suit30/11/2022 09:27:07 OT (5D 0H 47M ago)
AbsgagsgsgEmpty Suit30/11/2022 09:34:23 OT (5D 0H 40M ago)
ShshshkadgEmpty Suit30/11/2022 09:34:23 OT (5D 0H 40M ago)
PaydasEmpty Suit30/11/2022 09:34:23 OT (5D 0H 40M ago)
AvsgahsvaEmpty Suit30/11/2022 09:34:23 OT (5D 0H 40M ago)
TicoEmpty Suit30/11/2022 12:34:24 OT (4D 21H 40M ago)
JudgeEmpty Suit30/11/2022 13:50:34 OT (4D 20H 23M ago)
MiepmiepEmpty Suit30/11/2022 14:23:11 OT (4D 19H 51M ago)
GunnerEmpty Suit30/11/2022 16:13:06 OT (4D 18H 1M ago)
SilverEmpty Suit30/11/2022 16:22:17 OT (4D 17H 52M ago)
KijkenndEmpty Suit30/11/2022 18:34:23 OT (4D 15H 40M ago)
SlasherEmpty Suit30/11/2022 18:34:23 OT (4D 15H 40M ago)
RagoEmpty Suit30/11/2022 19:05:05 OT (4D 15H 9M ago)
GreenmickeEmpty Suit30/11/2022 19:25:06 OT (4D 14H 49M ago)
HerculesEmpty Suit30/11/2022 20:00:26 OT (4D 14H 14M ago)
HdosufbrkdEmpty Suit30/11/2022 20:35:06 OT (4D 13H 39M ago)
WertEmpty Suit30/11/2022 21:13:06 OT (4D 13H 1M ago)
CavaloEmpty Suit30/11/2022 23:27:05 OT (4D 10H 47M ago)
AsrenEmpty Suit01/12/2022 01:12:12 OT (4D 9H 2M ago)
MistyEmpty Suit01/12/2022 03:15:05 OT (4D 6H 59M ago)
ShadowEmpty Suit01/12/2022 06:00:18 OT (4D 4H 14M ago)
GloriaEmpty Suit01/12/2022 06:50:16 OT (4D 3H 24M ago)
BrutalEmpty Suit01/12/2022 09:00:23 OT (4D 1H 14M ago)
ZbuEmpty Suit01/12/2022 09:27:06 OT (4D 0H 47M ago)
JeremayaEmpty Suit01/12/2022 12:33:08 OT (3D 21H 41M ago)
SolidsnakeEmpty Suit01/12/2022 13:15:08 OT (3D 20H 59M ago)
AdquiseEmpty Suit01/12/2022 15:19:04 OT (3D 18H 55M ago)
MahjasEmpty Suit01/12/2022 16:42:26 OT (3D 17H 32M ago)
KatEmpty Suit01/12/2022 16:48:21 OT (3D 17H 26M ago)
ZaphiraEmpty Suit01/12/2022 16:53:08 OT (3D 17H 21M ago)
BohemianEmpty Suit01/12/2022 17:04:21 OT (3D 17H 10M ago)
TylerEmpty Suit01/12/2022 17:04:21 OT (3D 17H 10M ago)
ThorinEmpty Suit01/12/2022 17:19:08 OT (3D 16H 55M ago)
TyrionEmpty Suit01/12/2022 17:50:20 OT (3D 16H 24M ago)
KyuzoEmpty Suit01/12/2022 18:06:24 OT (3D 16H 8M ago)
ChazEmpty Suit01/12/2022 18:13:06 OT (3D 16H 1M ago)
CurraheeEmpty Suit01/12/2022 18:26:25 OT (3D 15H 48M ago)
RedEmpty Suit01/12/2022 18:26:25 OT (3D 15H 48M ago)
NtakosEmpty Suit01/12/2022 19:55:21 OT (3D 14H 19M ago)
BysomayEmpty Suit01/12/2022 20:47:10 OT (3D 13H 27M ago)
RukiyeEmpty Suit01/12/2022 21:01:20 OT (3D 13H 13M ago)
BroyEmpty Suit01/12/2022 22:27:09 OT (3D 11H 47M ago)
FrancoisEmpty Suit01/12/2022 22:41:06 OT (3D 11H 33M ago)
MdcEmpty Suit01/12/2022 23:09:05 OT (3D 11H 5M ago)
WayneEmpty Suit01/12/2022 23:36:16 OT (3D 10H 38M ago)
RenoxzEmpty Suit02/12/2022 00:44:14 OT (3D 9H 30M ago)
DadasEmpty Suit02/12/2022 01:17:05 OT (3D 8H 57M ago)
SoverEmpty Suit02/12/2022 01:56:12 OT (3D 8H 18M ago)
NixotinEmpty Suit02/12/2022 03:53:05 OT (3D 6H 21M ago)
GgininEmpty Suit02/12/2022 05:24:15 OT (3D 4H 50M ago)
ZweetvlekEmpty Suit02/12/2022 07:07:05 OT (3D 3H 7M ago)
KurosawaEmpty Suit02/12/2022 09:16:21 OT (3D 0H 58M ago)
BshehwEmpty Suit02/12/2022 09:46:15 OT (3D 0H 28M ago)
AsfagEmpty Suit02/12/2022 09:52:18 OT (3D 0H 22M ago)
ZhshhshdhdhEmpty Suit02/12/2022 09:58:19 OT (3D 0H 16M ago)
PayetEmpty Suit02/12/2022 10:10:18 OT (3D 0H 4M ago)
TdddEmpty Suit02/12/2022 10:10:18 OT (3D 0H 4M ago)
DelikanliEmpty Suit02/12/2022 10:13:05 OT (3D 0H 1M ago)
AhahhshshshEmpty Suit02/12/2022 10:27:06 OT (2D 23H 47M ago)
ShshshhdhsEmpty Suit02/12/2022 10:31:06 OT (2D 23H 43M ago)
StigmaEmpty Suit02/12/2022 10:44:19 OT (2D 23H 30M ago)
TozeEmpty Suit02/12/2022 11:32:23 OT (2D 22H 42M ago)
SheinEmpty Suit02/12/2022 11:58:29 OT (2D 22H 15M ago)
BonnieEmpty Suit02/12/2022 12:05:07 OT (2D 22H 9M ago)
DondeonEmpty Suit02/12/2022 13:10:21 OT (2D 21H 4M ago)
LmfEmpty Suit02/12/2022 13:15:08 OT (2D 20H 59M ago)
GoneEmpty Suit02/12/2022 13:15:08 OT (2D 20H 59M ago)
KamoEmpty Suit02/12/2022 13:18:25 OT (2D 20H 56M ago)
CartmanEmpty Suit02/12/2022 13:32:25 OT (2D 20H 42M ago)
HazeEmpty Suit02/12/2022 14:03:08 OT (2D 20H 11M ago)
KvasshEmpty Suit02/12/2022 14:17:06 OT (2D 19H 57M ago)
LinEmpty Suit02/12/2022 15:08:26 OT (2D 19H 6M ago)
JupiterEmpty Suit02/12/2022 15:34:18 OT (2D 18H 40M ago)
LileEmpty Suit02/12/2022 16:08:21 OT (2D 18H 6M ago)
GarfieldEmpty Suit02/12/2022 17:09:08 OT (2D 17H 5M ago)
FenixEmpty Suit02/12/2022 17:16:20 OT (2D 16H 58M ago)
MauoEmpty Suit02/12/2022 18:05:05 OT (2D 16H 9M ago)
PaulsEmpty Suit02/12/2022 18:32:33 OT (2D 15H 41M ago)
IngaEmpty Suit02/12/2022 18:32:33 OT (2D 15H 41M ago)
JariEmpty Suit02/12/2022 20:04:29 OT (2D 14H 9M ago)
ErdemoEmpty Suit02/12/2022 20:18:21 OT (2D 13H 56M ago)
SadplebEmpty Suit02/12/2022 20:56:23 OT (2D 13H 18M ago)
McgeeEmpty Suit02/12/2022 21:52:18 OT (2D 12H 22M ago)
CigiEmpty Suit02/12/2022 21:52:18 OT (2D 12H 22M ago)
SilenaEmpty Suit02/12/2022 22:19:07 OT (2D 11H 55M ago)
UkendtEmpty Suit02/12/2022 22:49:05 OT (2D 11H 25M ago)
SanchezEmpty Suit02/12/2022 23:40:17 OT (2D 10H 34M ago)
LavEmpty Suit03/12/2022 01:22:12 OT (2D 8H 52M ago)
MrjazzarEmpty Suit03/12/2022 02:23:04 OT (2D 7H 51M ago)
BriefcaseEmpty Suit03/12/2022 04:43:04 OT (2D 5H 31M ago)
UyuEmpty Suit03/12/2022 05:26:11 OT (2D 4H 48M ago)
ThanEmpty Suit03/12/2022 06:02:14 OT (2D 4H 12M ago)
MakEmpty Suit03/12/2022 06:26:14 OT (2D 3H 48M ago)
AmistarEmpty Suit03/12/2022 09:01:06 OT (2D 1H 13M ago)
SzyEmpty Suit03/12/2022 10:07:06 OT (2D 0H 7M ago)
DoneEmpty Suit03/12/2022 10:28:23 OT (1D 23H 46M ago)
HakanEmpty Suit03/12/2022 10:36:23 OT (1D 23H 38M ago)
MartinezEmpty Suit03/12/2022 11:22:20 OT (1D 22H 52M ago)
KingEmpty Suit03/12/2022 12:02:21 OT (1D 22H 12M ago)
MilanoEmpty Suit03/12/2022 12:36:27 OT (1D 21H 37M ago)
ReadysetgoEmpty Suit03/12/2022 13:16:21 OT (1D 20H 58M ago)
FranklyEmpty Suit03/12/2022 13:39:09 OT (1D 20H 35M ago)
MuchozEmpty Suit03/12/2022 13:52:19 OT (1D 20H 22M ago)
DunnoEmpty Suit03/12/2022 16:42:17 OT (1D 17H 32M ago)
BirdyEmpty Suit03/12/2022 17:08:18 OT (1D 17H 6M ago)
KydaEmpty Suit03/12/2022 17:20:20 OT (1D 16H 54M ago)
XxxEmpty Suit03/12/2022 17:40:16 OT (1D 16H 34M ago)
DdddEmpty Suit03/12/2022 17:50:21 OT (1D 16H 24M ago)
ZulaEmpty Suit03/12/2022 18:30:25 OT (1D 15H 44M ago)
SefirkeEmpty Suit03/12/2022 18:46:19 OT (1D 15H 28M ago)
XasEmpty Suit03/12/2022 18:57:06 OT (1D 15H 17M ago)
HeelmeuEmpty Suit03/12/2022 18:57:06 OT (1D 15H 17M ago)
LilfEmpty Suit03/12/2022 18:57:06 OT (1D 15H 17M ago)
MskeEmpty Suit03/12/2022 19:10:23 OT (1D 15H 4M ago)
AfkEmpty Suit03/12/2022 19:10:23 OT (1D 15H 4M ago)
KikiEmpty Suit03/12/2022 19:10:23 OT (1D 15H 4M ago)
EfefefeEmpty Suit03/12/2022 20:11:08 OT (1D 14H 3M ago)
DruzefEmpty Suit03/12/2022 20:15:08 OT (1D 13H 59M ago)
DelangeloEmpty Suit03/12/2022 20:48:26 OT (1D 13H 26M ago)
SexusEmpty Suit03/12/2022 21:02:23 OT (1D 13H 12M ago)
KsksEmpty Suit03/12/2022 21:35:07 OT (1D 12H 39M ago)
MonkEmpty Suit03/12/2022 22:20:22 OT (1D 11H 54M ago)
KoekoekEmpty Suit03/12/2022 22:57:09 OT (1D 11H 17M ago)
CengizhanEmpty Suit03/12/2022 23:38:16 OT (1D 10H 36M ago)
AqifiEmpty Suit04/12/2022 00:14:16 OT (1D 10H 0M ago)
HillyEmpty Suit04/12/2022 03:44:14 OT (1D 6H 30M ago)
KarlaEmpty Suit04/12/2022 04:28:15 OT (1D 5H 46M ago)
FdffsffEmpty Suit04/12/2022 04:36:15 OT (1D 5H 38M ago)
MexEmpty Suit04/12/2022 06:38:12 OT (1D 3H 36M ago)
ErteEmpty Suit04/12/2022 07:24:19 OT (1D 2H 50M ago)
TfoeEmpty Suit04/12/2022 08:13:05 OT (1D 2H 1M ago)
ThegameEmpty Suit04/12/2022 08:31:07 OT (1D 1H 43M ago)
TehEmpty Suit04/12/2022 09:04:22 OT (1D 1H 10M ago)
PatrickEmpty Suit04/12/2022 09:21:08 OT (1D 0H 53M ago)
JaneEmpty Suit04/12/2022 09:40:20 OT (1D 0H 34M ago)
FeyzoEmpty Suit04/12/2022 10:30:23 OT (0D 23H 44M ago)
DillerEmpty Suit04/12/2022 10:53:07 OT (0D 23H 21M ago)
AxsedEmpty Suit04/12/2022 11:17:05 OT (0D 22H 57M ago)
RockyzEmpty Suit04/12/2022 11:21:07 OT (0D 22H 53M ago)
RoosEmpty Suit04/12/2022 11:21:07 OT (0D 22H 53M ago)
SbeEmpty Suit04/12/2022 12:21:07 OT (0D 21H 53M ago)
SopranoEmpty Suit04/12/2022 12:37:06 OT (0D 21H 37M ago)
BuymeoutEmpty Suit04/12/2022 13:45:06 OT (0D 20H 29M ago)
HiczemmerEmpty Suit04/12/2022 13:55:08 OT (0D 20H 19M ago)
RetrrtEmpty Suit04/12/2022 14:17:06 OT (0D 19H 57M ago)
SmokygigelEmpty Suit04/12/2022 14:17:06 OT (0D 19H 57M ago)
EndexEmpty Suit04/12/2022 14:47:07 OT (0D 19H 27M ago)
LolllllEmpty Suit04/12/2022 14:53:06 OT (0D 19H 21M ago)
PedroelnegroEmpty Suit04/12/2022 15:11:06 OT (0D 19H 3M ago)
BietraEmpty Suit04/12/2022 15:28:21 OT (0D 18H 46M ago)
PerfoEmpty Suit04/12/2022 15:33:05 OT (0D 18H 41M ago)
NothEmpty Suit04/12/2022 15:44:21 OT (0D 18H 30M ago)
GuideEmpty Suit04/12/2022 16:00:31 OT (0D 18H 13M ago)
NooekEmpty Suit04/12/2022 16:00:31 OT (0D 18H 13M ago)
ElchemEmpty Suit04/12/2022 16:06:34 OT (0D 18H 7M ago)
KumsalEmpty Suit04/12/2022 16:55:05 OT (0D 17H 19M ago)
RyaEmpty Suit04/12/2022 17:34:20 OT (0D 16H 40M ago)
RealgangsterEmpty Suit04/12/2022 17:34:20 OT (0D 16H 40M ago)
TomasEmpty Suit04/12/2022 17:40:33 OT (0D 16H 33M ago)
RodneyjrEmpty Suit04/12/2022 18:40:34 OT (0D 15H 33M ago)
LegendaryEmpty Suit04/12/2022 18:52:33 OT (0D 15H 21M ago)
BozzEmpty Suit04/12/2022 19:12:33 OT (0D 15H 1M ago)
MesqulEmpty Suit04/12/2022 19:22:36 OT (0D 14H 51M ago)
TequilaEmpty Suit04/12/2022 19:28:32 OT (0D 14H 45M ago)
VagabondlawEmpty Suit04/12/2022 19:42:34 OT (0D 14H 31M ago)
WarrieEmpty Suit04/12/2022 19:46:34 OT (0D 14H 27M ago)
BoeEmpty Suit04/12/2022 19:52:19 OT (0D 14H 22M ago)
CptEmpty Suit04/12/2022 19:56:25 OT (0D 14H 18M ago)
DreamersEmpty Suit04/12/2022 19:56:25 OT (0D 14H 18M ago)
GghEmpty Suit04/12/2022 20:03:25 OT (0D 14H 11M ago)
LinkeleoEmpty Suit04/12/2022 20:10:21 OT (0D 14H 4M ago)
ChEmpty Suit04/12/2022 20:16:21 OT (0D 13H 58M ago)
RyazEmpty Suit04/12/2022 20:16:21 OT (0D 13H 58M ago)
WhooEmpty Suit04/12/2022 20:26:35 OT (0D 13H 47M ago)
DonomarEmpty Suit04/12/2022 20:42:22 OT (0D 13H 32M ago)
LooperEmpty Suit04/12/2022 20:47:20 OT (0D 13H 27M ago)
ShenkerEmpty Suit04/12/2022 20:47:20 OT (0D 13H 27M ago)
CrownEmpty Suit04/12/2022 21:03:33 OT (0D 13H 10M ago)
MorpheusEmpty Suit04/12/2022 21:03:33 OT (0D 13H 10M ago)
MakelovdEmpty Suit04/12/2022 21:03:33 OT (0D 13H 10M ago)
PlaEmpty Suit04/12/2022 21:03:33 OT (0D 13H 10M ago)
ForfourEmpty Suit04/12/2022 21:03:33 OT (0D 13H 10M ago)
LoookaEmpty Suit04/12/2022 21:41:21 OT (0D 12H 33M ago)
StapEmpty Suit04/12/2022 21:48:07 OT (0D 12H 26M ago)
SsstaaartEmpty Suit04/12/2022 22:14:05 OT (0D 12H 0M ago)
OrkestraEmpty Suit04/12/2022 22:49:15 OT (0D 11H 25M ago)
TotoEmpty Suit04/12/2022 22:56:06 OT (0D 11H 18M ago)
KenobiEmpty Suit05/12/2022 00:32:05 OT (0D 9H 42M ago)
PummieEmpty Suit05/12/2022 00:37:12 OT (0D 9H 37M ago)
BmallozzEmpty Suit05/12/2022 00:49:12 OT (0D 9H 25M ago)
ShintaroEmpty Suit05/12/2022 01:54:05 OT (0D 8H 20M ago)
EthanEmpty Suit05/12/2022 03:07:12 OT (0D 7H 7M ago)
DsaEmpty Suit05/12/2022 06:08:04 OT (0D 4H 6M ago)
MidlandEmpty Suit05/12/2022 06:46:05 OT (0D 3H 28M ago)
CzEmpty Suit05/12/2022 06:46:05 OT (0D 3H 28M ago)
KimiEmpty Suit05/12/2022 06:54:05 OT (0D 3H 20M ago)
JoejellyEmpty Suit05/12/2022 07:01:18 OT (0D 3H 13M ago)
LacosaEmpty Suit05/12/2022 07:01:18 OT (0D 3H 13M ago)
AnuEmpty Suit05/12/2022 07:17:17 OT (0D 2H 57M ago)
WaffenEmpty Suit05/12/2022 07:46:04 OT (0D 2H 28M ago)
BwEmpty Suit05/12/2022 08:05:18 OT (0D 2H 9M ago)
RrrrEmpty Suit05/12/2022 08:28:06 OT (0D 1H 46M ago)
PumaaEmpty Suit05/12/2022 08:28:06 OT (0D 1H 46M ago)
KutspeEmpty Suit05/12/2022 08:57:21 OT (0D 1H 17M ago)
CohenEmpty Suit05/12/2022 09:05:21 OT (0D 1H 9M ago)
JinxEmpty Suit05/12/2022 09:10:06 OT (0D 1H 4M ago)
PilipoEmpty Suit05/12/2022 09:17:17 OT (0D 0H 57M ago)
AwawawEmpty Suit05/12/2022 09:17:17 OT (0D 0H 57M ago)
JoehoeEmpty Suit05/12/2022 09:25:22 OT (0D 0H 49M ago)
OvidioEmpty Suit05/12/2022 09:32:07 OT (0D 0H 42M ago)
BossooEmpty Suit05/12/2022 09:40:05 OT (0D 0H 34M ago)
CanonEmpty Suit05/12/2022 09:54:06 OT (0D 0H 20M ago)
RssEmpty Suit05/12/2022 10:01:22 OT (0D 0H 13M ago)
ZiyaEmpty Suit05/12/2022 10:01:22 OT (0D 0H 13M ago)
BotkofawyfeEmpty Suit05/12/2022 10:09:21 OT (0D 0H 5M ago)
BustalEmpty Suit05/12/2022 10:09:21 OT (0D 0H 5M ago)
HayleyEmpty Suit05/12/2022 10:09:21 OT (0D 0H 5M ago)
DanihiroEmpty Suit05/12/2022 10:09:21 OT (0D 0H 5M ago)
PsychodoctorDelivery Boy19/11/2022 20:45:05 OT (15D 13H 29M ago)
MeltemDelivery Boy19/11/2022 22:24:15 OT (15D 11H 50M ago)
SilentkDelivery Boy19/11/2022 22:58:15 OT (15D 11H 16M ago)
SteelioDelivery Boy20/11/2022 13:36:16 OT (14D 20H 38M ago)
DonsemakaDelivery Boy20/11/2022 16:36:21 OT (14D 17H 38M ago)
MannynoxDelivery Boy20/11/2022 20:47:06 OT (14D 13H 27M ago)
PhilmackenziDelivery Boy21/11/2022 01:12:14 OT (14D 9H 2M ago)
HopeyDelivery Boy22/11/2022 23:58:13 OT (12D 10H 16M ago)
CuffDelivery Boy23/11/2022 11:33:07 OT (11D 22H 41M ago)
BigautistDelivery Boy23/11/2022 16:55:16 OT (11D 17H 19M ago)
WejoDelivery Boy23/11/2022 17:49:25 OT (11D 16H 25M ago)
ReccoDelivery Boy23/11/2022 18:16:06 OT (11D 15H 58M ago)
LololoDelivery Boy24/11/2022 08:50:17 OT (11D 1H 24M ago)
SalvatoreDelivery Boy24/11/2022 11:57:07 OT (10D 22H 17M ago)
SouraDelivery Boy24/11/2022 15:48:28 OT (10D 18H 25M ago)
AlgreenDelivery Boy24/11/2022 18:15:24 OT (10D 15H 59M ago)
ComethamailDelivery Boy26/11/2022 02:59:04 OT (9D 7H 15M ago)
IncognitoDelivery Boy26/11/2022 16:30:26 OT (8D 17H 44M ago)
OhmyDelivery Boy26/11/2022 16:36:19 OT (8D 17H 38M ago)
EpioneDelivery Boy26/11/2022 18:14:18 OT (8D 16H 0M ago)
DemadeDelivery Boy27/11/2022 19:45:20 OT (7D 14H 29M ago)
WatchurbackDelivery Boy27/11/2022 20:53:32 OT (7D 13H 20M ago)
PatchesDelivery Boy27/11/2022 23:19:16 OT (7D 10H 55M ago)
NajdorfDelivery Boy28/11/2022 13:01:24 OT (6D 21H 13M ago)
DochballDelivery Boy28/11/2022 16:25:13 OT (6D 17H 49M ago)
DoomdocDelivery Boy28/11/2022 18:18:14 OT (6D 15H 56M ago)
TarusioDelivery Boy28/11/2022 19:08:32 OT (6D 15H 5M ago)
SnovitDelivery Boy28/11/2022 23:03:18 OT (6D 11H 11M ago)
FrankieDelivery Boy29/11/2022 02:37:12 OT (6D 7H 37M ago)
KadajuDelivery Boy29/11/2022 13:26:22 OT (5D 20H 48M ago)
BobmoogDelivery Boy29/11/2022 16:14:22 OT (5D 18H 0M ago)
SouzaDelivery Boy29/11/2022 21:49:06 OT (5D 12H 25M ago)
RoosterDelivery Boy30/11/2022 12:53:07 OT (4D 21H 21M ago)
ChpDelivery Boy30/11/2022 17:19:09 OT (4D 16H 55M ago)
MarconiDelivery Boy30/11/2022 22:49:05 OT (4D 11H 25M ago)
AlbaniDelivery Boy01/12/2022 00:14:15 OT (4D 10H 0M ago)
FirebatDelivery Boy01/12/2022 21:18:12 OT (3D 12H 56M ago)
SbconwayDelivery Boy02/12/2022 00:57:06 OT (3D 9H 17M ago)
TaccatDelivery Boy02/12/2022 10:35:06 OT (2D 23H 39M ago)
FreedomDelivery Boy02/12/2022 16:16:22 OT (2D 17H 58M ago)
HellboyDelivery Boy02/12/2022 16:41:06 OT (2D 17H 33M ago)
AdynisDelivery Boy02/12/2022 18:47:06 OT (2D 15H 27M ago)
NifsDelivery Boy02/12/2022 20:10:23 OT (2D 14H 4M ago)
GutsDelivery Boy03/12/2022 18:30:25 OT (1D 15H 44M ago)
CpedersenDelivery Boy03/12/2022 20:26:24 OT (1D 13H 48M ago)
CalippoDelivery Boy04/12/2022 10:02:17 OT (1D 0H 12M ago)
ReddotDelivery Boy04/12/2022 15:28:21 OT (0D 18H 46M ago)
HitmanDelivery Boy04/12/2022 19:56:25 OT (0D 14H 18M ago)
DrowningDelivery Boy05/12/2022 02:13:13 OT (0D 8H 1M ago)
ScrappyDelivery Boy05/12/2022 06:28:04 OT (0D 3H 46M ago)
KuncanDelivery Boy05/12/2022 08:05:18 OT (0D 2H 9M ago)
PunshahDelivery Boy05/12/2022 08:28:06 OT (0D 1H 46M ago)
SintamDelivery Boy05/12/2022 10:09:21 OT (0D 0H 5M ago)
FarketmezagaDelivery Boy05/12/2022 10:09:21 OT (0D 0H 5M ago)
ReiPicciotto20/11/2022 09:25:05 OT (15D 0H 49M ago)
BoesmansPicciotto20/11/2022 16:24:20 OT (14D 17H 50M ago)
KenehadePicciotto20/11/2022 21:30:20 OT (14D 12H 44M ago)
SkytearPicciotto21/11/2022 14:38:18 OT (13D 19H 36M ago)
FarkasPicciotto22/11/2022 11:12:33 OT (12D 23H 1M ago)
DrwhitePicciotto22/11/2022 12:37:07 OT (12D 21H 37M ago)
KrouPicciotto22/11/2022 19:40:29 OT (12D 14H 33M ago)
JmexiaPicciotto23/11/2022 15:44:08 OT (11D 18H 30M ago)
MainskitzPicciotto23/11/2022 17:53:19 OT (11D 16H 21M ago)
AlvagodPicciotto23/11/2022 20:26:10 OT (11D 13H 48M ago)
RaskolPicciotto23/11/2022 20:32:08 OT (11D 13H 42M ago)
GriffinPicciotto23/11/2022 21:33:18 OT (11D 12H 41M ago)
MexsPicciotto24/11/2022 06:46:15 OT (11D 3H 28M ago)
AmstradaPicciotto24/11/2022 19:52:36 OT (10D 14H 21M ago)
JannaPicciotto25/11/2022 08:01:06 OT (10D 2H 13M ago)
NaevorcPicciotto26/11/2022 18:36:23 OT (8D 15H 38M ago)
BulentcakmakPicciotto26/11/2022 18:36:23 OT (8D 15H 38M ago)
MartiPicciotto26/11/2022 19:42:19 OT (8D 14H 32M ago)
EndgamePicciotto26/11/2022 20:17:05 OT (8D 13H 57M ago)
GnaxiPicciotto27/11/2022 17:31:10 OT (7D 16H 43M ago)
PietroPicciotto28/11/2022 05:55:12 OT (7D 4H 19M ago)
ElcheynPicciotto28/11/2022 06:35:12 OT (7D 3H 39M ago)
DeimosPicciotto28/11/2022 15:18:34 OT (6D 18H 55M ago)
JaxxPicciotto28/11/2022 18:43:10 OT (6D 15H 31M ago)
BobgunPicciotto29/11/2022 00:19:14 OT (6D 9H 55M ago)
BukaPicciotto29/11/2022 12:07:05 OT (5D 22H 7M ago)
CylnPicciotto29/11/2022 21:54:23 OT (5D 12H 20M ago)
EelmeetPicciotto30/11/2022 01:14:16 OT (5D 9H 0M ago)
RockenziPicciotto30/11/2022 02:58:12 OT (5D 7H 16M ago)
RenegadePicciotto30/11/2022 20:10:26 OT (4D 14H 4M ago)
BilzerianPicciotto01/12/2022 14:49:05 OT (3D 19H 25M ago)
AwakenPicciotto01/12/2022 20:02:39 OT (3D 14H 11M ago)
KarlsmartPicciotto01/12/2022 23:09:05 OT (3D 11H 5M ago)
CafarosPicciotto02/12/2022 08:22:13 OT (3D 1H 52M ago)
HagridPicciotto02/12/2022 13:48:23 OT (2D 20H 26M ago)
QuavoPicciotto02/12/2022 14:13:08 OT (2D 20H 1M ago)
GuendouziPicciotto02/12/2022 14:44:20 OT (2D 19H 30M ago)
RabobankPicciotto02/12/2022 14:44:20 OT (2D 19H 30M ago)
CrimsonPicciotto02/12/2022 16:30:18 OT (2D 17H 44M ago)
KlamfyrPicciotto02/12/2022 17:50:22 OT (2D 16H 24M ago)
ArminasPicciotto02/12/2022 19:57:11 OT (2D 14H 17M ago)
PikachuPicciotto02/12/2022 20:14:21 OT (2D 14H 0M ago)
DollyPicciotto02/12/2022 20:23:07 OT (2D 13H 51M ago)
PerlozPicciotto03/12/2022 00:07:05 OT (2D 10H 7M ago)
SuikerPicciotto03/12/2022 09:55:06 OT (2D 0H 19M ago)
InovatePicciotto03/12/2022 13:39:09 OT (1D 20H 35M ago)
NabiPicciotto03/12/2022 13:52:19 OT (1D 20H 22M ago)
ManuelcaidPicciotto03/12/2022 21:42:25 OT (1D 12H 32M ago)
FaustinPicciotto04/12/2022 00:32:16 OT (1D 9H 42M ago)
TemurPicciotto04/12/2022 03:58:13 OT (1D 6H 16M ago)
ScarlettPicciotto04/12/2022 06:15:05 OT (1D 3H 59M ago)
ValerianiPicciotto04/12/2022 07:16:17 OT (1D 2H 58M ago)
JohnPicciotto04/12/2022 08:09:07 OT (1D 2H 5M ago)
ObelixPicciotto04/12/2022 15:48:29 OT (0D 18H 25M ago)
XerPicciotto04/12/2022 18:27:08 OT (0D 15H 47M ago)
MrguapoPicciotto04/12/2022 19:06:30 OT (0D 15H 7M ago)
BubbafatPicciotto04/12/2022 19:42:34 OT (0D 14H 31M ago)
GoaPicciotto04/12/2022 21:03:33 OT (0D 13H 10M ago)
PinkpantherPicciotto04/12/2022 22:07:20 OT (0D 12H 7M ago)
JacklePicciotto05/12/2022 04:40:04 OT (0D 5H 34M ago)
DraculaPicciotto05/12/2022 06:17:14 OT (0D 3H 57M ago)
FrieskillerPicciotto05/12/2022 07:01:18 OT (0D 3H 13M ago)
BorisbrejchaPicciotto05/12/2022 08:33:21 OT (0D 1H 41M ago)
AlquimistaPicciotto05/12/2022 09:54:06 OT (0D 0H 20M ago)
TheshadowPicciotto05/12/2022 10:09:21 OT (0D 0H 5M ago)
SaymonShoplifter19/11/2022 20:35:06 OT (15D 13H 39M ago)
DwaynejonesShoplifter19/11/2022 21:42:18 OT (15D 12H 32M ago)
IshmaShoplifter20/11/2022 08:16:15 OT (15D 1H 58M ago)
KoparmaShoplifter20/11/2022 11:22:15 OT (14D 22H 52M ago)
DardanceShoplifter20/11/2022 15:14:17 OT (14D 19H 0M ago)
SukuShoplifter20/11/2022 16:20:19 OT (14D 17H 54M ago)
FeroniaShoplifter20/11/2022 18:56:19 OT (14D 15H 18M ago)
JoeyreyesShoplifter20/11/2022 22:28:17 OT (14D 11H 46M ago)
MrwhiteShoplifter21/11/2022 01:12:14 OT (14D 9H 2M ago)
KhalidShoplifter21/11/2022 10:07:05 OT (14D 0H 7M ago)
AsocialShoplifter21/11/2022 14:13:10 OT (13D 20H 1M ago)
KutuShoplifter21/11/2022 17:03:08 OT (13D 17H 11M ago)
HetfieldShoplifter21/11/2022 18:11:09 OT (13D 16H 3M ago)
CoverdaleShoplifter22/11/2022 02:36:12 OT (13D 7H 38M ago)
ProvencanoShoplifter22/11/2022 17:03:06 OT (12D 17H 11M ago)
CyveneShoplifter22/11/2022 17:32:22 OT (12D 16H 42M ago)
WesttShoplifter22/11/2022 20:03:08 OT (12D 14H 11M ago)
UstaShoplifter23/11/2022 18:26:10 OT (11D 15H 48M ago)
CisemShoplifter23/11/2022 18:26:10 OT (11D 15H 48M ago)
KesiciiShoplifter23/11/2022 18:48:12 OT (11D 15H 26M ago)
AzoShoplifter23/11/2022 20:37:30 OT (11D 13H 36M ago)
CalmtitShoplifter24/11/2022 00:54:11 OT (11D 9H 20M ago)
SaksiShoplifter24/11/2022 09:47:07 OT (11D 0H 27M ago)
CicekShoplifter24/11/2022 09:47:07 OT (11D 0H 27M ago)
PekiShoplifter24/11/2022 09:47:07 OT (11D 0H 27M ago)
TuxifiedShoplifter24/11/2022 10:11:05 OT (11D 0H 3M ago)
HawkoliveiraShoplifter24/11/2022 15:27:08 OT (10D 18H 47M ago)
OnixShoplifter25/11/2022 13:55:10 OT (9D 20H 19M ago)
XdeosShoplifter25/11/2022 16:16:15 OT (9D 17H 58M ago)
DuvarShoplifter26/11/2022 05:35:06 OT (9D 4H 39M ago)
GooberShoplifter26/11/2022 06:58:13 OT (9D 3H 16M ago)
MasaShoplifter26/11/2022 09:53:05 OT (9D 0H 21M ago)
HagarShoplifter26/11/2022 09:58:19 OT (9D 0H 16M ago)
ErtwokShoplifter26/11/2022 13:09:07 OT (8D 21H 5M ago)
IntwooShoplifter26/11/2022 18:31:06 OT (8D 15H 43M ago)
MadagamShoplifter26/11/2022 23:14:14 OT (8D 11H 0M ago)
GuelhinhoShoplifter27/11/2022 22:38:09 OT (7D 11H 36M ago)
HypnosShoplifter28/11/2022 15:05:30 OT (6D 19H 8M ago)
KremtianoShoplifter28/11/2022 15:18:34 OT (6D 18H 55M ago)
TromschlumpShoplifter28/11/2022 22:36:08 OT (6D 11H 38M ago)
PandoraShoplifter29/11/2022 02:29:10 OT (6D 7H 45M ago)
ErsShoplifter29/11/2022 13:10:25 OT (5D 21H 4M ago)
SlayerShoplifter29/11/2022 19:36:23 OT (5D 14H 38M ago)
AyiboganShoplifter30/11/2022 14:56:20 OT (4D 19H 18M ago)
FriezahShoplifter30/11/2022 16:01:07 OT (4D 18H 13M ago)
KheckShoplifter30/11/2022 23:33:05 OT (4D 10H 41M ago)
ApekotsShoplifter01/12/2022 09:34:16 OT (4D 0H 40M ago)
QuartoShoplifter01/12/2022 19:55:21 OT (3D 14H 19M ago)
RamataShoplifter01/12/2022 20:02:39 OT (3D 14H 11M ago)
SumolShoplifter01/12/2022 20:09:17 OT (3D 14H 5M ago)
TetanoShoplifter01/12/2022 20:20:18 OT (3D 13H 54M ago)
UavShoplifter01/12/2022 20:34:24 OT (3D 13H 40M ago)
VenderShoplifter01/12/2022 20:47:10 OT (3D 13H 27M ago)
WazzaShoplifter01/12/2022 20:54:15 OT (3D 13H 20M ago)
ZartaShoplifter01/12/2022 21:07:20 OT (3D 13H 7M ago)
AmmoShoplifter01/12/2022 21:13:21 OT (3D 13H 1M ago)
BoarShoplifter01/12/2022 21:22:09 OT (3D 12H 52M ago)
CantoShoplifter01/12/2022 21:31:08 OT (3D 12H 43M ago)
DadoShoplifter01/12/2022 21:42:30 OT (3D 12H 31M ago)
ErvaShoplifter01/12/2022 21:47:05 OT (3D 12H 27M ago)
GargolShoplifter01/12/2022 21:59:08 OT (3D 12H 15M ago)
FiredShoplifter01/12/2022 21:59:08 OT (3D 12H 15M ago)
FakamadafakaShoplifter02/12/2022 13:48:23 OT (2D 20H 26M ago)
UntoteShoplifter03/12/2022 08:38:17 OT (2D 1H 36M ago)
JonesShoplifter03/12/2022 11:40:21 OT (1D 22H 34M ago)
LockdownShoplifter03/12/2022 12:29:05 OT (1D 21H 45M ago)
BellatrixShoplifter03/12/2022 16:53:06 OT (1D 17H 21M ago)
PropastShoplifter03/12/2022 21:05:05 OT (1D 13H 9M ago)
GoodcrossShoplifter04/12/2022 00:18:16 OT (1D 9H 56M ago)
BasShoplifter04/12/2022 10:13:04 OT (1D 0H 1M ago)
MrpopzShoplifter04/12/2022 10:30:23 OT (0D 23H 44M ago)
PerspellShoplifter04/12/2022 11:41:05 OT (0D 22H 33M ago)
DirtydikeShoplifter04/12/2022 12:26:20 OT (0D 21H 48M ago)
ThorShoplifter04/12/2022 13:25:06 OT (0D 20H 49M ago)
TorapoowShoplifter04/12/2022 14:11:06 OT (0D 20H 3M ago)
DumenciShoplifter04/12/2022 16:38:19 OT (0D 17H 36M ago)
AnabelShoplifter04/12/2022 21:21:24 OT (0D 12H 53M ago)
BryceShoplifter04/12/2022 21:21:24 OT (0D 12H 53M ago)
LazarusShoplifter04/12/2022 21:21:24 OT (0D 12H 53M ago)
CostumsShoplifter04/12/2022 21:28:05 OT (0D 12H 46M ago)
DurantShoplifter04/12/2022 21:28:05 OT (0D 12H 46M ago)
EmeShoplifter04/12/2022 21:35:29 OT (0D 12H 38M ago)
HothotShoplifter04/12/2022 21:48:07 OT (0D 12H 26M ago)
JameloShoplifter04/12/2022 21:48:07 OT (0D 12H 26M ago)
GengarShoplifter04/12/2022 21:48:07 OT (0D 12H 26M ago)
OpioShoplifter04/12/2022 21:56:07 OT (0D 12H 18M ago)
KelinShoplifter04/12/2022 21:56:07 OT (0D 12H 18M ago)
LobiShoplifter04/12/2022 21:56:07 OT (0D 12H 18M ago)
MolaShoplifter04/12/2022 22:03:22 OT (0D 12H 11M ago)
GamesucksShoplifter04/12/2022 22:49:15 OT (0D 11H 25M ago)
EpafroditoShoplifter05/12/2022 01:07:14 OT (0D 9H 7M ago)
PixardoShoplifter05/12/2022 03:12:05 OT (0D 7H 2M ago)
SeymourShoplifter05/12/2022 07:57:19 OT (0D 2H 17M ago)
JawkarShoplifter05/12/2022 08:17:18 OT (0D 1H 57M ago)
LoosecanonShoplifter05/12/2022 08:48:07 OT (0D 1H 26M ago)
MaggaShoplifter05/12/2022 08:57:21 OT (0D 1H 17M ago)
WoesShoplifter05/12/2022 09:02:05 OT (0D 1H 12M ago)
VenomShoplifter05/12/2022 09:25:22 OT (0D 0H 49M ago)
ChinesebatShoplifter05/12/2022 10:09:21 OT (0D 0H 5M ago)
XenomorpheusShoplifter05/12/2022 10:09:21 OT (0D 0H 5M ago)
GrovestShoplifter05/12/2022 10:09:21 OT (0D 0H 5M ago)
DembeleShoplifter05/12/2022 10:09:21 OT (0D 0H 5M ago)
KenjishotaroShoplifter05/12/2022 10:09:21 OT (0D 0H 5M ago)
HitmanoShoplifter05/12/2022 10:09:21 OT (0D 0H 5M ago)
BifumaPickpocket20/11/2022 00:54:13 OT (15D 9H 20M ago)
BolubeyiPickpocket20/11/2022 01:36:14 OT (15D 8H 38M ago)
AraltesPickpocket20/11/2022 07:48:17 OT (15D 2H 26M ago)
OmurPickpocket20/11/2022 10:21:05 OT (14D 23H 53M ago)
BenderPickpocket20/11/2022 12:04:25 OT (14D 22H 10M ago)
CaorianPickpocket20/11/2022 14:21:06 OT (14D 19H 53M ago)
MarderPickpocket20/11/2022 15:19:05 OT (14D 18H 55M ago)
CatarinaPickpocket20/11/2022 16:29:04 OT (14D 17H 45M ago)
AsyaPickpocket20/11/2022 21:30:20 OT (14D 12H 44M ago)
AgababaPickpocket21/11/2022 01:58:11 OT (14D 8H 16M ago)
PrimeraPickpocket22/11/2022 01:29:04 OT (13D 8H 45M ago)
KastroPickpocket22/11/2022 07:45:05 OT (13D 2H 29M ago)
OraclePickpocket22/11/2022 09:01:06 OT (13D 1H 13M ago)
KapkanPickpocket22/11/2022 11:32:29 OT (12D 22H 41M ago)
LordaPickpocket22/11/2022 12:02:22 OT (12D 22H 12M ago)
MaviiPickpocket22/11/2022 14:24:25 OT (12D 19H 50M ago)
UpsPickpocket22/11/2022 17:32:22 OT (12D 16H 42M ago)
MotorcuPickpocket23/11/2022 18:48:12 OT (11D 15H 26M ago)
PiriPickpocket24/11/2022 05:56:13 OT (11D 4H 18M ago)
BasgecPickpocket24/11/2022 11:07:07 OT (10D 23H 7M ago)
DodoPickpocket24/11/2022 14:11:06 OT (10D 20H 3M ago)
CakirogluPickpocket24/11/2022 23:41:06 OT (10D 10H 33M ago)
PatelliPickpocket25/11/2022 07:37:05 OT (10D 2H 37M ago)
XiPickpocket25/11/2022 10:22:19 OT (9D 23H 52M ago)
TicyPickpocket25/11/2022 23:48:15 OT (9D 10H 26M ago)
LiamPickpocket26/11/2022 18:46:19 OT (8D 15H 28M ago)
CavendishPickpocket26/11/2022 20:24:18 OT (8D 13H 50M ago)
CocugunbiriPickpocket27/11/2022 07:20:14 OT (8D 2H 54M ago)
GhostPickpocket27/11/2022 21:55:26 OT (7D 12H 19M ago)
MervinPickpocket28/11/2022 22:50:09 OT (6D 11H 24M ago)
RapPickpocket29/11/2022 05:40:06 OT (6D 4H 34M ago)
KabussPickpocket29/11/2022 12:14:26 OT (5D 22H 0M ago)
RazaPickpocket29/11/2022 15:46:27 OT (5D 18H 27M ago)
CretinPickpocket29/11/2022 19:12:25 OT (5D 15H 2M ago)
DiamontePickpocket29/11/2022 23:34:14 OT (5D 10H 40M ago)
PaakPickpocket30/11/2022 07:42:22 OT (5D 2H 32M ago)
KearushePickpocket30/11/2022 09:02:22 OT (5D 1H 12M ago)
BerdockPickpocket30/11/2022 13:10:28 OT (4D 21H 3M ago)
ZappaPickpocket01/12/2022 11:10:21 OT (3D 23H 4M ago)
PedrogPickpocket02/12/2022 12:44:19 OT (2D 21H 30M ago)
FrederikusPickpocket02/12/2022 12:50:22 OT (2D 21H 24M ago)
BatellaPickpocket02/12/2022 17:44:25 OT (2D 16H 30M ago)
MaviPickpocket02/12/2022 20:52:22 OT (2D 13H 22M ago)
ZzzPickpocket02/12/2022 21:32:19 OT (2D 12H 42M ago)
ChitownPickpocket03/12/2022 01:57:06 OT (2D 8H 17M ago)
LijpePickpocket03/12/2022 06:36:16 OT (2D 3H 38M ago)
JakxxPickpocket03/12/2022 10:00:24 OT (2D 0H 14M ago)
FamemPickpocket03/12/2022 12:23:07 OT (1D 21H 51M ago)
KarloPickpocket03/12/2022 12:41:06 OT (1D 21H 33M ago)
JanelaPickpocket03/12/2022 13:00:23 OT (1D 21H 14M ago)
LavantePickpocket03/12/2022 13:16:21 OT (1D 20H 58M ago)
MarcelinoPickpocket03/12/2022 13:24:25 OT (1D 20H 50M ago)
OdetePickpocket03/12/2022 13:52:19 OT (1D 20H 22M ago)
PardalPickpocket03/12/2022 14:00:25 OT (1D 20H 14M ago)
MaymunPickpocket03/12/2022 14:06:25 OT (1D 20H 8M ago)
OflualiPickpocket03/12/2022 14:46:17 OT (1D 19H 28M ago)
HamorePickpocket03/12/2022 16:20:20 OT (1D 17H 54M ago)
IndroPickpocket03/12/2022 16:53:06 OT (1D 17H 21M ago)
BeatrixPickpocket03/12/2022 21:13:05 OT (1D 13H 1M ago)
CaterpiePickpocket04/12/2022 06:15:05 OT (1D 3H 59M ago)
AndorPickpocket04/12/2022 06:27:04 OT (1D 3H 47M ago)
DamiloPickpocket04/12/2022 06:38:12 OT (1D 3H 36M ago)
EmbrioPickpocket04/12/2022 06:43:05 OT (1D 3H 31M ago)
GaliantePickpocket04/12/2022 06:43:05 OT (1D 3H 31M ago)
BatemPickpocket04/12/2022 06:50:14 OT (1D 3H 24M ago)
NegetaPickpocket04/12/2022 07:46:14 OT (1D 2H 28M ago)
VandalmagePickpocket04/12/2022 10:26:22 OT (0D 23H 48M ago)
SavagPickpocket04/12/2022 15:22:19 OT (0D 18H 52M ago)
ColoursxPickpocket04/12/2022 18:10:29 OT (0D 16H 3M ago)
SnakyPickpocket04/12/2022 18:45:18 OT (0D 15H 29M ago)
MacellanPickpocket04/12/2022 19:56:25 OT (0D 14H 18M ago)
OsamabinPickpocket04/12/2022 20:10:21 OT (0D 14H 4M ago)
DocdocPickpocket04/12/2022 21:03:33 OT (0D 13H 10M ago)
JvPickpocket04/12/2022 23:26:05 OT (0D 10H 48M ago)
RapidaPickpocket05/12/2022 00:02:04 OT (0D 10H 12M ago)
VinktitoPickpocket05/12/2022 00:21:15 OT (0D 9H 53M ago)
DorPickpocket05/12/2022 01:58:04 OT (0D 8H 16M ago)
HorsesPickpocket05/12/2022 08:01:19 OT (0D 2H 13M ago)
CirodidonaPickpocket05/12/2022 09:10:06 OT (0D 1H 4M ago)
TenboerderPickpocket05/12/2022 09:10:06 OT (0D 1H 4M ago)
DancerPickpocket05/12/2022 09:40:05 OT (0D 0H 34M ago)
BananfanPickpocket05/12/2022 09:54:06 OT (0D 0H 20M ago)
GoldenhordePickpocket05/12/2022 10:01:22 OT (0D 0H 13M ago)
SagarisPickpocket05/12/2022 10:01:22 OT (0D 0H 13M ago)
ShaolinboxerPickpocket05/12/2022 10:09:21 OT (0D 0H 5M ago)
JaneyPickpocket05/12/2022 10:09:21 OT (0D 0H 5M ago)
SuckitPickpocket05/12/2022 10:09:21 OT (0D 0H 5M ago)
CannolijoePickpocket05/12/2022 10:09:21 OT (0D 0H 5M ago)
ZmdPickpocket05/12/2022 10:09:21 OT (0D 0H 5M ago)
TinaPickpocket05/12/2022 10:09:21 OT (0D 0H 5M ago)
BlahPickpocket05/12/2022 10:09:21 OT (0D 0H 5M ago)
SayahatPickpocket05/12/2022 10:09:21 OT (0D 0H 5M ago)
KrvmagaPickpocket05/12/2022 10:09:21 OT (0D 0H 5M ago)
ZzzzPickpocket05/12/2022 10:09:21 OT (0D 0H 5M ago)
UnkonwThief20/11/2022 09:16:16 OT (15D 0H 58M ago)
RoxyThief21/11/2022 06:21:06 OT (14D 3H 53M ago)
JoanThief21/11/2022 06:58:11 OT (14D 3H 16M ago)
ZequinhaThief21/11/2022 10:33:05 OT (13D 23H 41M ago)
NobodyThief21/11/2022 14:44:20 OT (13D 19H 30M ago)
AbdulheyThief21/11/2022 17:26:17 OT (13D 16H 48M ago)
KanzoThief21/11/2022 20:46:18 OT (13D 13H 28M ago)
HolaThief22/11/2022 04:48:12 OT (13D 5H 26M ago)
LislThief22/11/2022 13:46:19 OT (12D 20H 28M ago)
NelisThief22/11/2022 15:02:19 OT (12D 19H 12M ago)
KbrThief22/11/2022 17:58:21 OT (12D 16H 16M ago)
WhisThief23/11/2022 08:40:17 OT (12D 1H 34M ago)
BordooThief23/11/2022 11:48:17 OT (11D 22H 26M ago)
CobratateThief23/11/2022 12:00:17 OT (11D 22H 14M ago)
PukThief23/11/2022 13:49:14 OT (11D 20H 25M ago)
RondhoekThief23/11/2022 15:01:17 OT (11D 19H 13M ago)
BerryThief23/11/2022 17:17:22 OT (11D 16H 57M ago)
BakiiThief23/11/2022 22:04:08 OT (11D 12H 10M ago)
CaneyThief24/11/2022 02:33:07 OT (11D 7H 41M ago)
KizmaThief24/11/2022 02:38:11 OT (11D 7H 36M ago)
PismanThief24/11/2022 02:38:11 OT (11D 7H 36M ago)
BedduaThief24/11/2022 02:38:11 OT (11D 7H 36M ago)
AzerThief24/11/2022 02:50:12 OT (11D 7H 24M ago)
GulThief24/11/2022 02:57:06 OT (11D 7H 17M ago)
KadafiThief24/11/2022 03:04:09 OT (11D 7H 10M ago)
BanThief24/11/2022 03:24:10 OT (11D 6H 50M ago)
StarworThief24/11/2022 03:42:11 OT (11D 6H 32M ago)
AniThief24/11/2022 03:42:11 OT (11D 6H 32M ago)
HatiraThief24/11/2022 03:46:12 OT (11D 6H 28M ago)
PlayedThief24/11/2022 03:46:12 OT (11D 6H 28M ago)
SevdaThief24/11/2022 03:50:11 OT (11D 6H 24M ago)
DesorerThief24/11/2022 04:04:10 OT (11D 6H 10M ago)
FatalThief24/11/2022 04:31:04 OT (11D 5H 43M ago)
AyiThief24/11/2022 04:31:04 OT (11D 5H 43M ago)
MemoThief24/11/2022 07:05:05 OT (11D 3H 9M ago)
LeylekkThief24/11/2022 07:05:05 OT (11D 3H 9M ago)
NaftaaThief24/11/2022 07:32:13 OT (11D 2H 42M ago)
MurooThief24/11/2022 07:57:07 OT (11D 2H 17M ago)
VaczakdlThief24/11/2022 09:59:06 OT (11D 0H 15M ago)
DagobertThief25/11/2022 11:04:16 OT (9D 23H 10M ago)
NapoleonThief25/11/2022 16:57:10 OT (9D 17H 17M ago)
AdidasThief25/11/2022 17:04:19 OT (9D 17H 10M ago)
YavuzzThief25/11/2022 19:27:14 OT (9D 14H 47M ago)
ShayshayThief25/11/2022 19:27:14 OT (9D 14H 47M ago)
CerenimoThief25/11/2022 22:01:09 OT (9D 12H 13M ago)
MoodThief26/11/2022 08:26:18 OT (9D 1H 48M ago)
GggggThief26/11/2022 08:43:07 OT (9D 1H 31M ago)
SkirosThief26/11/2022 16:27:06 OT (8D 17H 47M ago)
MityrThief26/11/2022 23:22:15 OT (8D 10H 52M ago)
HasoThief27/11/2022 13:17:09 OT (7D 20H 57M ago)
LeoThief27/11/2022 23:19:16 OT (7D 10H 55M ago)
KopThief28/11/2022 14:25:16 OT (6D 19H 49M ago)
PeerdThief28/11/2022 18:37:13 OT (6D 15H 37M ago)
LomuhtarThief28/11/2022 19:55:16 OT (6D 14H 19M ago)
AssinaThief29/11/2022 11:03:10 OT (5D 23H 11M ago)
JrsalvadoreThief29/11/2022 20:27:09 OT (5D 13H 47M ago)
BolshoiboozeThief29/11/2022 20:35:07 OT (5D 13H 39M ago)
FenderThief29/11/2022 22:31:06 OT (5D 11H 43M ago)
EhrmantrautThief29/11/2022 23:34:14 OT (5D 10H 40M ago)
SamdowThief30/11/2022 14:01:07 OT (4D 20H 13M ago)
XenThief30/11/2022 15:37:06 OT (4D 18H 37M ago)
EqkThief30/11/2022 20:30:30 OT (4D 13H 43M ago)
BavorThief01/12/2022 01:57:05 OT (4D 8H 17M ago)
AlexiosThief01/12/2022 09:34:16 OT (4D 0H 40M ago)
BigbossThief01/12/2022 16:53:08 OT (3D 17H 21M ago)
GerardiThief01/12/2022 17:35:07 OT (3D 16H 39M ago)
MariowscThief01/12/2022 17:55:07 OT (3D 16H 19M ago)
UdagamThief01/12/2022 18:13:06 OT (3D 16H 1M ago)
HakimiThief01/12/2022 19:19:09 OT (3D 14H 55M ago)
MuacThief01/12/2022 23:43:04 OT (3D 10H 31M ago)
JksThief02/12/2022 00:24:15 OT (3D 9H 50M ago)
LupenzaThief02/12/2022 03:59:05 OT (3D 6H 15M ago)
HypecThief02/12/2022 05:31:05 OT (3D 4H 43M ago)
SultanThief02/12/2022 07:02:13 OT (3D 3H 12M ago)
MeThief02/12/2022 09:58:19 OT (3D 0H 16M ago)
HarryThief02/12/2022 16:41:06 OT (2D 17H 33M ago)
GizmoThief02/12/2022 20:04:29 OT (2D 14H 9M ago)
AaaThief02/12/2022 20:10:23 OT (2D 14H 4M ago)
XeniThief03/12/2022 00:53:04 OT (2D 9H 21M ago)
PashaThief03/12/2022 00:57:06 OT (2D 9H 17M ago)
MkaThief03/12/2022 12:54:20 OT (1D 21H 20M ago)
ZaraThief03/12/2022 16:20:20 OT (1D 17H 54M ago)
FrankThief03/12/2022 17:32:19 OT (1D 16H 42M ago)
NineThief03/12/2022 17:40:16 OT (1D 16H 34M ago)
HedgeThief03/12/2022 18:26:16 OT (1D 15H 48M ago)
MelThief04/12/2022 09:55:07 OT (1D 0H 19M ago)
KaslicocukThief04/12/2022 10:30:23 OT (0D 23H 44M ago)
EdgeThief04/12/2022 10:58:23 OT (0D 23H 16M ago)
JhonzThief04/12/2022 17:23:06 OT (0D 16H 51M ago)
PqThief04/12/2022 17:40:33 OT (0D 16H 33M ago)
DirtyharryThief04/12/2022 18:15:13 OT (0D 15H 59M ago)
MaaikeThief04/12/2022 19:03:08 OT (0D 15H 11M ago)
ConorThief04/12/2022 19:03:08 OT (0D 15H 11M ago)
SeriThief04/12/2022 19:06:30 OT (0D 15H 7M ago)
TerminatorThief04/12/2022 19:22:36 OT (0D 14H 51M ago)
RedlabelThief04/12/2022 20:21:10 OT (0D 13H 53M ago)
StyleThief04/12/2022 21:56:07 OT (0D 12H 18M ago)
CoffeyThief04/12/2022 22:14:05 OT (0D 12H 0M ago)
KamehameThief04/12/2022 22:38:06 OT (0D 11H 36M ago)
RodThief04/12/2022 22:38:06 OT (0D 11H 36M ago)
StevThief04/12/2022 23:49:15 OT (0D 10H 25M ago)
ClickbaitThief05/12/2022 00:21:15 OT (0D 9H 53M ago)
RinThief05/12/2022 00:43:16 OT (0D 9H 31M ago)
MataThief05/12/2022 01:58:04 OT (0D 8H 16M ago)
SkatopsyxosThief05/12/2022 02:39:14 OT (0D 7H 35M ago)
InspectorThief05/12/2022 04:33:14 OT (0D 5H 41M ago)
OmerThief05/12/2022 06:28:04 OT (0D 3H 46M ago)
KarbonaterolThief05/12/2022 08:01:19 OT (0D 2H 13M ago)
AragornThief05/12/2022 08:28:06 OT (0D 1H 46M ago)
HozhoThief05/12/2022 08:37:18 OT (0D 1H 37M ago)
WoodrawThief05/12/2022 08:48:07 OT (0D 1H 26M ago)
QwertyThief05/12/2022 10:09:21 OT (0D 0H 5M ago)
ValliantsThief05/12/2022 10:09:21 OT (0D 0H 5M ago)
BapsiThief05/12/2022 10:09:21 OT (0D 0H 5M ago)
BusterdimezThief05/12/2022 10:09:21 OT (0D 0H 5M ago)
WeaponsThief05/12/2022 10:09:21 OT (0D 0H 5M ago)
MrhouseThief05/12/2022 10:09:21 OT (0D 0H 5M ago)
GaspThief05/12/2022 10:09:21 OT (0D 0H 5M ago)
JaydakillaThief05/12/2022 10:09:21 OT (0D 0H 5M ago)
ZahahThief05/12/2022 10:09:21 OT (0D 0H 5M ago)
SmallovThief05/12/2022 10:09:21 OT (0D 0H 5M ago)
BadopThief05/12/2022 10:09:21 OT (0D 0H 5M ago)
OgThief05/12/2022 10:09:21 OT (0D 0H 5M ago)
MacarioThief05/12/2022 10:09:21 OT (0D 0H 5M ago)
AmaThief05/12/2022 10:09:21 OT (0D 0H 5M ago)
HuddoggThief05/12/2022 10:09:21 OT (0D 0H 5M ago)
NessamAssociate22/11/2022 21:30:20 OT (12D 12H 44M ago)
RankerAssociate23/11/2022 05:01:05 OT (12D 5H 13M ago)
WoefAssociate23/11/2022 08:05:04 OT (12D 2H 9M ago)
AaAssociate23/11/2022 10:03:06 OT (12D 0H 11M ago)
StineAssociate23/11/2022 20:26:10 OT (11D 13H 48M ago)
LucaAssociate24/11/2022 14:48:24 OT (10D 19H 26M ago)
CalvinAssociate24/11/2022 16:44:27 OT (10D 17H 29M ago)
MosfolAssociate24/11/2022 18:39:34 OT (10D 15H 34M ago)
ZurnaAssociate24/11/2022 18:58:15 OT (10D 15H 16M ago)
KampAssociate24/11/2022 19:03:36 OT (10D 15H 10M ago)
TekilaAssociate24/11/2022 21:08:14 OT (10D 13H 6M ago)
LimitAssociate24/11/2022 21:08:14 OT (10D 13H 6M ago)
WollaceAssociate25/11/2022 04:36:12 OT (10D 5H 38M ago)
SelenaAssociate25/11/2022 06:52:14 OT (10D 3H 22M ago)
ExemecaAssociate25/11/2022 09:16:20 OT (10D 0H 58M ago)
WhyyAssociate25/11/2022 11:49:05 OT (9D 22H 25M ago)
BourneAssociate25/11/2022 12:50:25 OT (9D 21H 24M ago)
PapaAssociate25/11/2022 19:14:24 OT (9D 15H 0M ago)
PetraAssociate26/11/2022 01:25:04 OT (9D 8H 49M ago)
LaviAssociate26/11/2022 02:59:04 OT (9D 7H 15M ago)
RedrumAssociate26/11/2022 10:33:06 OT (8D 23H 41M ago)
ManaAssociate26/11/2022 11:31:06 OT (8D 22H 43M ago)
TiAssociate27/11/2022 06:10:09 OT (8D 4H 4M ago)
AylaAssociate27/11/2022 13:22:24 OT (7D 20H 52M ago)
LolllAssociate27/11/2022 13:22:24 OT (7D 20H 52M ago)
MeulightAssociate27/11/2022 20:53:32 OT (7D 13H 20M ago)
DonhjAssociate27/11/2022 22:11:20 OT (7D 12H 3M ago)
NeresAssociate28/11/2022 00:19:12 OT (7D 9H 55M ago)
CrixusAssociate28/11/2022 21:26:23 OT (6D 12H 48M ago)
TrinityAssociate28/11/2022 23:28:07 OT (6D 10H 46M ago)
ViuAssociate28/11/2022 23:35:14 OT (6D 10H 39M ago)
DtAssociate29/11/2022 07:32:09 OT (6D 2H 42M ago)
BabaganushAssociate29/11/2022 07:40:09 OT (6D 2H 34M ago)
EscAssociate29/11/2022 08:59:14 OT (6D 1H 15M ago)
ObserverAssociate29/11/2022 12:07:05 OT (5D 22H 7M ago)
ErosAssociate29/11/2022 14:20:20 OT (5D 19H 54M ago)
AlcaponeAssociate29/11/2022 21:58:24 OT (5D 12H 16M ago)
LolAssociate30/11/2022 05:58:15 OT (5D 4H 16M ago)
VossyAssociate30/11/2022 07:00:16 OT (5D 3H 14M ago)
CyberdyneAssociate30/11/2022 08:12:15 OT (5D 2H 2M ago)
LuffyAssociate30/11/2022 10:10:25 OT (5D 0H 4M ago)
XixidegatoAssociate30/11/2022 13:30:28 OT (4D 20H 43M ago)
GelAssociate30/11/2022 18:31:08 OT (4D 15H 43M ago)
KajaAssociate30/11/2022 19:16:21 OT (4D 14H 58M ago)
AiAssociate30/11/2022 22:49:05 OT (4D 11H 25M ago)
KikinhasAssociate30/11/2022 23:10:17 OT (4D 11H 4M ago)
WiseoldelfAssociate01/12/2022 01:34:12 OT (4D 8H 40M ago)
JeezyAssociate01/12/2022 06:56:13 OT (4D 3H 18M ago)
KorkakAssociate01/12/2022 07:19:06 OT (4D 2H 55M ago)
AnthonyAssociate01/12/2022 12:41:05 OT (3D 21H 33M ago)
CrespoAssociate01/12/2022 14:12:18 OT (3D 20H 2M ago)
SeskanAssociate01/12/2022 16:42:26 OT (3D 17H 32M ago)
MmtAssociate01/12/2022 18:13:06 OT (3D 16H 1M ago)
KovaAssociate01/12/2022 18:56:28 OT (3D 15H 17M ago)
GhxstAssociate01/12/2022 20:34:24 OT (3D 13H 40M ago)
SchlomoAssociate01/12/2022 21:59:08 OT (3D 12H 15M ago)
FgdtAssociate02/12/2022 09:46:15 OT (3D 0H 28M ago)
DeadAssociate02/12/2022 10:04:19 OT (3D 0H 10M ago)
LalaAssociate02/12/2022 13:48:23 OT (2D 20H 26M ago)
FloytAssociate02/12/2022 16:08:21 OT (2D 18H 6M ago)
SeguAssociate02/12/2022 17:22:24 OT (2D 16H 52M ago)
MickasAssociate02/12/2022 19:16:36 OT (2D 14H 57M ago)
ChnAssociate02/12/2022 20:35:07 OT (2D 13H 39M ago)
GysAssociate02/12/2022 20:41:12 OT (2D 13H 33M ago)
HollAssociate02/12/2022 21:07:08 OT (2D 13H 7M ago)
CorleoneAssociate02/12/2022 22:37:05 OT (2D 11H 37M ago)
ValoriaAssociate02/12/2022 23:18:15 OT (2D 10H 56M ago)
AtoeshhAssociate03/12/2022 03:14:10 OT (2D 7H 0M ago)
ChaseAssociate03/12/2022 09:09:07 OT (2D 1H 5M ago)
WhyAssociate03/12/2022 11:32:20 OT (1D 22H 42M ago)
HamdiaAssociate03/12/2022 12:23:07 OT (1D 21H 51M ago)
PatirAssociate03/12/2022 17:32:19 OT (1D 16H 42M ago)
KkkkAssociate03/12/2022 18:57:06 OT (1D 15H 17M ago)
BruAssociate03/12/2022 19:26:20 OT (1D 14H 48M ago)
ArasAssociate04/12/2022 01:31:05 OT (1D 8H 43M ago)
BugAssociate04/12/2022 03:58:13 OT (1D 6H 16M ago)
FuAssociate04/12/2022 10:08:19 OT (1D 0H 6M ago)
MrhakAssociate04/12/2022 10:58:23 OT (0D 23H 16M ago)
SrdAssociate04/12/2022 11:17:05 OT (0D 22H 57M ago)
DespacitoAssociate04/12/2022 18:45:18 OT (0D 15H 29M ago)
VelticoAssociate04/12/2022 19:12:33 OT (0D 15H 1M ago)
FreakyAssociate04/12/2022 20:42:22 OT (0D 13H 32M ago)
RzAssociate04/12/2022 22:07:20 OT (0D 12H 7M ago)
AxessAssociate04/12/2022 22:56:06 OT (0D 11H 18M ago)
FeyaAssociate05/12/2022 01:43:14 OT (0D 8H 31M ago)
MoroAssociate05/12/2022 05:51:17 OT (0D 4H 23M ago)
WollahAssociate05/12/2022 05:51:17 OT (0D 4H 23M ago)
RoberttAssociate05/12/2022 06:54:05 OT (0D 3H 20M ago)
MathieuAssociate05/12/2022 07:31:18 OT (0D 2H 43M ago)
AnimaAssociate05/12/2022 07:46:04 OT (0D 2H 28M ago)
CocainAssociate05/12/2022 07:46:04 OT (0D 2H 28M ago)
NoneAssociate05/12/2022 07:51:17 OT (0D 2H 23M ago)
AlemciAssociate05/12/2022 07:57:19 OT (0D 2H 17M ago)
MedesAssociate05/12/2022 07:57:19 OT (0D 2H 17M ago)
MajortomAssociate05/12/2022 08:43:24 OT (0D 1H 31M ago)
StitchingAssociate05/12/2022 08:57:21 OT (0D 1H 17M ago)
EngaAssociate05/12/2022 10:09:21 OT (0D 0H 5M ago)
PragueAssociate05/12/2022 10:09:21 OT (0D 0H 5M ago)
ZeimeiAssociate05/12/2022 10:09:21 OT (0D 0H 5M ago)
RevengesssAssociate05/12/2022 10:09:21 OT (0D 0H 5M ago)
NeotoroAssociate05/12/2022 10:09:21 OT (0D 0H 5M ago)
ChestherAssociate05/12/2022 10:09:21 OT (0D 0H 5M ago)
VastesAssociate05/12/2022 10:09:21 OT (0D 0H 5M ago)
CmeandozAssociate05/12/2022 10:09:21 OT (0D 0H 5M ago)
RicozAssociate05/12/2022 10:09:21 OT (0D 0H 5M ago)
LortAssociate05/12/2022 10:09:21 OT (0D 0H 5M ago)
GcAssociate05/12/2022 10:09:21 OT (0D 0H 5M ago)
FirikAssociate05/12/2022 10:09:21 OT (0D 0H 5M ago)
LipaAssociate05/12/2022 10:09:21 OT (0D 0H 5M ago)
BaydexAssociate05/12/2022 10:09:21 OT (0D 0H 5M ago)
SovAssociate05/12/2022 10:09:21 OT (0D 0H 5M ago)
MekeAssociate05/12/2022 10:09:21 OT (0D 0H 5M ago)
CellatAssociate05/12/2022 10:09:21 OT (0D 0H 5M ago)
MeaAssociate05/12/2022 10:09:21 OT (0D 0H 5M ago)
MangaAssociate05/12/2022 10:09:21 OT (0D 0H 5M ago)
ZiyeAssociate05/12/2022 10:09:21 OT (0D 0H 5M ago)
BeloAssociate05/12/2022 10:09:21 OT (0D 0H 5M ago)
DankopAssociate05/12/2022 10:09:21 OT (0D 0H 5M ago)
PozarAssociate05/12/2022 10:09:21 OT (0D 0H 5M ago)
IvqenAssociate05/12/2022 10:09:21 OT (0D 0H 5M ago)
MalkAssociate05/12/2022 10:09:21 OT (0D 0H 5M ago)
RaolAssociate05/12/2022 10:09:21 OT (0D 0H 5M ago)
PankeyAssociate05/12/2022 10:09:21 OT (0D 0H 5M ago)
JhonyAssociate05/12/2022 10:09:21 OT (0D 0H 5M ago)
KoraAssociate05/12/2022 10:09:21 OT (0D 0H 5M ago)
MayAssociate05/12/2022 10:09:21 OT (0D 0H 5M ago)
AztAssociate05/12/2022 10:09:21 OT (0D 0H 5M ago)
BugaAssociate05/12/2022 10:09:21 OT (0D 0H 5M ago)
SnakAssociate05/12/2022 10:09:21 OT (0D 0H 5M ago)
FtAssociate05/12/2022 10:09:21 OT (0D 0H 5M ago)
BrayAssociate05/12/2022 10:09:21 OT (0D 0H 5M ago)
BlumAssociate05/12/2022 10:09:21 OT (0D 0H 5M ago)
KyraAssociate05/12/2022 10:09:21 OT (0D 0H 5M ago)
MegaAssociate05/12/2022 10:09:21 OT (0D 0H 5M ago)
YetimAssociate05/12/2022 10:09:21 OT (0D 0H 5M ago)
KorkutreyizAssociate05/12/2022 10:09:21 OT (0D 0H 5M ago)
MimimiAssociate05/12/2022 10:09:21 OT (0D 0H 5M ago)
EmonAssociate05/12/2022 10:09:21 OT (0D 0H 5M ago)
EmpathkillerMobster22/11/2022 23:00:18 OT (12D 11H 14M ago)
BlazeitMobster23/11/2022 06:06:14 OT (12D 4H 8M ago)
KasongoMobster23/11/2022 22:38:12 OT (11D 11H 36M ago)
HeliosMobster24/11/2022 11:45:05 OT (10D 22H 29M ago)
NelsMobster24/11/2022 18:27:30 OT (10D 15H 46M ago)
OneeMobster25/11/2022 07:31:06 OT (10D 2H 43M ago)
ValadranMobster25/11/2022 13:21:09 OT (9D 20H 53M ago)
MortuaestMobster25/11/2022 13:28:26 OT (9D 20H 46M ago)
CscMobster25/11/2022 21:05:06 OT (9D 13H 9M ago)
BabaMobster27/11/2022 16:58:28 OT (7D 17H 15M ago)
DarkMobster27/11/2022 19:30:28 OT (7D 14H 43M ago)
MhmdMobster28/11/2022 00:36:09 OT (7D 9H 38M ago)
ManMobster28/11/2022 00:42:10 OT (7D 9H 32M ago)
WomenMobster28/11/2022 01:05:12 OT (7D 9H 9M ago)
EmersynMobster28/11/2022 10:02:24 OT (7D 0H 12M ago)
SaaaMobster28/11/2022 13:37:15 OT (6D 20H 37M ago)
EsrarMobster28/11/2022 23:28:07 OT (6D 10H 46M ago)
OswaldMobster29/11/2022 22:16:20 OT (5D 11H 58M ago)
EscobarsMobster29/11/2022 22:23:07 OT (5D 11H 51M ago)
MeisterMobster30/11/2022 19:09:08 OT (4D 15H 5M ago)
ForeMobster30/11/2022 21:13:06 OT (4D 13H 1M ago)
BalboaMobster30/11/2022 21:36:19 OT (4D 12H 38M ago)
IntikamMobster01/12/2022 04:36:14 OT (4D 5H 38M ago)
CobbMobster01/12/2022 05:32:13 OT (4D 4H 42M ago)
AlpisMobster01/12/2022 06:21:07 OT (4D 3H 53M ago)
TomMobster01/12/2022 13:42:21 OT (3D 20H 32M ago)
LelMobster01/12/2022 14:33:08 OT (3D 19H 41M ago)
OoMobster01/12/2022 14:55:06 OT (3D 19H 19M ago)
AakMobster01/12/2022 14:55:06 OT (3D 19H 19M ago)
KagawaMobster01/12/2022 15:19:04 OT (3D 18H 55M ago)
NozdormuMobster01/12/2022 20:38:19 OT (3D 13H 36M ago)
CruelgirlMobster01/12/2022 21:22:09 OT (3D 12H 52M ago)
LionelMobster01/12/2022 21:27:07 OT (3D 12H 47M ago)
SiksakMobster02/12/2022 10:35:06 OT (2D 23H 39M ago)
PilaMobster02/12/2022 16:03:06 OT (2D 18H 11M ago)
OntembaarMobster02/12/2022 23:29:05 OT (2D 10H 45M ago)
GaliMobster03/12/2022 01:09:05 OT (2D 9H 5M ago)
HeisenbergMobster03/12/2022 06:41:06 OT (2D 3H 33M ago)
GolgeMobster03/12/2022 11:40:21 OT (1D 22H 34M ago)
PigMobster03/12/2022 20:42:22 OT (1D 13H 32M ago)
RegalMobster03/12/2022 21:42:25 OT (1D 12H 32M ago)
SbMobster03/12/2022 23:11:06 OT (1D 11H 3M ago)
TonyrosatoMobster04/12/2022 10:26:22 OT (0D 23H 48M ago)
WorldcupMobster04/12/2022 12:30:22 OT (0D 21H 44M ago)
HyugaMobster04/12/2022 14:11:06 OT (0D 20H 3M ago)
ElexiiMobster04/12/2022 15:33:05 OT (0D 18H 41M ago)
VietdragonMobster04/12/2022 16:55:05 OT (0D 17H 19M ago)
ColtMobster04/12/2022 17:34:20 OT (0D 16H 40M ago)
FattonyMobster04/12/2022 18:40:34 OT (0D 15H 33M ago)
NikosMobster04/12/2022 18:52:33 OT (0D 15H 21M ago)
CbyMobster04/12/2022 20:21:10 OT (0D 13H 53M ago)
FlyfreakMobster04/12/2022 21:14:17 OT (0D 13H 0M ago)
TaobrokyMobster04/12/2022 21:21:24 OT (0D 12H 53M ago)
ChocolateMobster04/12/2022 23:37:15 OT (0D 10H 37M ago)
PeteMobster05/12/2022 05:26:05 OT (0D 4H 48M ago)
MawaMobster05/12/2022 05:31:13 OT (0D 4H 43M ago)
SerkusMobster05/12/2022 06:23:12 OT (0D 3H 51M ago)
ScuvMobster05/12/2022 07:01:18 OT (0D 3H 13M ago)
BereteMobster05/12/2022 07:31:18 OT (0D 2H 43M ago)
OvaMobster05/12/2022 07:46:04 OT (0D 2H 28M ago)
BunkerMobster05/12/2022 10:01:22 OT (0D 0H 13M ago)
ShadsMobster05/12/2022 10:01:22 OT (0D 0H 13M ago)
ThenMobster05/12/2022 10:09:21 OT (0D 0H 5M ago)
CordialMobster05/12/2022 10:09:21 OT (0D 0H 5M ago)
AlejandroMobster05/12/2022 10:09:21 OT (0D 0H 5M ago)
RosaMobster05/12/2022 10:09:21 OT (0D 0H 5M ago)
FavorMobster05/12/2022 10:09:21 OT (0D 0H 5M ago)
OhonMobster05/12/2022 10:09:21 OT (0D 0H 5M ago)
JdMobster05/12/2022 10:09:21 OT (0D 0H 5M ago)
FofanaMobster05/12/2022 10:09:21 OT (0D 0H 5M ago)
KabadayiMobster05/12/2022 10:09:21 OT (0D 0H 5M ago)
GnbMobster05/12/2022 10:09:21 OT (0D 0H 5M ago)
GliyMobster05/12/2022 10:09:21 OT (0D 0H 5M ago)
MemMobster05/12/2022 10:09:21 OT (0D 0H 5M ago)
HokkabazMobster05/12/2022 10:09:21 OT (0D 0H 5M ago)
YediMobster05/12/2022 10:09:21 OT (0D 0H 5M ago)
PerdonoMobster05/12/2022 10:09:21 OT (0D 0H 5M ago)
BluecollarMobster05/12/2022 10:09:21 OT (0D 0H 5M ago)
QueenMobster05/12/2022 10:09:21 OT (0D 0H 5M ago)
KankaMobster05/12/2022 10:09:21 OT (0D 0H 5M ago)
AhujMobster05/12/2022 10:09:21 OT (0D 0H 5M ago)
HerlaxMobster05/12/2022 10:09:21 OT (0D 0H 5M ago)
PanaMobster05/12/2022 10:09:21 OT (0D 0H 5M ago)
EyzMobster05/12/2022 10:09:21 OT (0D 0H 5M ago)
MekuMobster05/12/2022 10:09:21 OT (0D 0H 5M ago)
FiyaskoMobster05/12/2022 10:09:21 OT (0D 0H 5M ago)
RedmiMobster05/12/2022 10:09:21 OT (0D 0H 5M ago)
RefleksMobster05/12/2022 10:09:21 OT (0D 0H 5M ago)
LampardMobster05/12/2022 10:09:21 OT (0D 0H 5M ago)
DrgreyMobster05/12/2022 10:09:21 OT (0D 0H 5M ago)
SatoMobster05/12/2022 10:09:21 OT (0D 0H 5M ago)
DeryaMobster05/12/2022 10:09:21 OT (0D 0H 5M ago)
TofyMobster05/12/2022 10:09:21 OT (0D 0H 5M ago)
YoghMobster05/12/2022 10:09:21 OT (0D 0H 5M ago)
OsayiMobster05/12/2022 10:09:21 OT (0D 0H 5M ago)
CerMobster05/12/2022 10:09:21 OT (0D 0H 5M ago)
PapMobster05/12/2022 10:09:21 OT (0D 0H 5M ago)
DennoMobster05/12/2022 10:09:21 OT (0D 0H 5M ago)
GracexMobster05/12/2022 10:09:21 OT (0D 0H 5M ago)
AzrMobster05/12/2022 10:09:21 OT (0D 0H 5M ago)
CridMobster05/12/2022 10:09:21 OT (0D 0H 5M ago)
JudelawMobster05/12/2022 10:09:21 OT (0D 0H 5M ago)
LoleysMobster05/12/2022 10:09:21 OT (0D 0H 5M ago)
DanielsMobster05/12/2022 10:09:21 OT (0D 0H 5M ago)
KaderMobster05/12/2022 10:09:21 OT (0D 0H 5M ago)
AnnastaziaSoldier24/11/2022 11:07:07 OT (10D 23H 7M ago)
AlmilaSoldier26/11/2022 12:26:18 OT (8D 21H 48M ago)
RattataSoldier26/11/2022 13:17:07 OT (8D 20H 57M ago)
PepeSoldier27/11/2022 06:36:15 OT (8D 3H 38M ago)
MichaelSoldier27/11/2022 08:43:05 OT (8D 1H 31M ago)
GulldownSoldier27/11/2022 21:51:32 OT (7D 12H 22M ago)
BullykSoldier28/11/2022 05:22:06 OT (7D 4H 52M ago)
FrenkieSoldier28/11/2022 09:36:29 OT (7D 0H 37M ago)
TonymontanaSoldier29/11/2022 08:06:08 OT (6D 2H 8M ago)
ChelooSoldier29/11/2022 12:36:17 OT (5D 21H 38M ago)
ZazaSoldier29/11/2022 16:56:17 OT (5D 17H 18M ago)
BugsSoldier29/11/2022 19:20:28 OT (5D 14H 53M ago)
YsnSoldier30/11/2022 06:30:18 OT (5D 3H 44M ago)
PandaSoldier02/12/2022 14:17:06 OT (2D 19H 57M ago)
SiegelSoldier02/12/2022 17:16:20 OT (2D 16H 58M ago)
MantorrasSoldier02/12/2022 18:40:22 OT (2D 15H 34M ago)
PepiSoldier02/12/2022 19:23:08 OT (2D 14H 51M ago)
FunkySoldier03/12/2022 08:42:20 OT (2D 1H 32M ago)
RouxinolSoldier03/12/2022 12:48:27 OT (1D 21H 25M ago)
TiamatSoldier03/12/2022 17:32:19 OT (1D 16H 42M ago)
LushenSoldier03/12/2022 17:40:16 OT (1D 16H 34M ago)
InvernalSoldier03/12/2022 22:07:06 OT (1D 12H 7M ago)
BurningdeathSoldier04/12/2022 04:06:15 OT (1D 6H 8M ago)
VenamusSoldier04/12/2022 10:37:06 OT (0D 23H 37M ago)
YanniSoldier04/12/2022 17:34:20 OT (0D 16H 40M ago)
AsalSoldier04/12/2022 18:27:08 OT (0D 15H 47M ago)
EkmekSoldier04/12/2022 20:03:25 OT (0D 14H 11M ago)
TommmSoldier04/12/2022 20:10:21 OT (0D 14H 4M ago)
EsenSoldier04/12/2022 20:10:21 OT (0D 14H 4M ago)
TokaSoldier04/12/2022 20:10:21 OT (0D 14H 4M ago)
ElenaSoldier04/12/2022 21:14:17 OT (0D 13H 0M ago)
SosyalSoldier04/12/2022 21:21:24 OT (0D 12H 53M ago)
MedyaSoldier04/12/2022 21:21:24 OT (0D 12H 53M ago)
AliceSoldier04/12/2022 22:14:05 OT (0D 12H 0M ago)
EzSoldier05/12/2022 00:49:12 OT (0D 9H 25M ago)
SotnasSoldier05/12/2022 01:23:14 OT (0D 8H 51M ago)
SholaSoldier05/12/2022 01:36:05 OT (0D 8H 38M ago)
TerimSoldier05/12/2022 03:40:04 OT (0D 6H 34M ago)
SeasiderSoldier05/12/2022 06:23:12 OT (0D 3H 51M ago)
DonbiggSoldier05/12/2022 07:21:17 OT (0D 2H 53M ago)
SplendidSoldier05/12/2022 08:05:18 OT (0D 2H 9M ago)
NeredeSoldier05/12/2022 10:09:21 OT (0D 0H 5M ago)
SwiSoldier05/12/2022 10:09:21 OT (0D 0H 5M ago)
EzequielSoldier05/12/2022 10:09:21 OT (0D 0H 5M ago)
DaisySoldier05/12/2022 10:09:21 OT (0D 0H 5M ago)
AyrSoldier05/12/2022 10:09:21 OT (0D 0H 5M ago)
KaraSoldier05/12/2022 10:09:21 OT (0D 0H 5M ago)
LuxSoldier05/12/2022 10:09:21 OT (0D 0H 5M ago)
ZeynSoldier05/12/2022 10:09:21 OT (0D 0H 5M ago)
RitaSoldier05/12/2022 10:09:21 OT (0D 0H 5M ago)
OccSoldier05/12/2022 10:09:21 OT (0D 0H 5M ago)
EdregSoldier05/12/2022 10:09:21 OT (0D 0H 5M ago)
OddSoldier05/12/2022 10:09:21 OT (0D 0H 5M ago)
GersSoldier05/12/2022 10:09:21 OT (0D 0H 5M ago)
PacmanSoldier05/12/2022 10:09:21 OT (0D 0H 5M ago)
TurboSoldier05/12/2022 10:09:21 OT (0D 0H 5M ago)
YsmnSoldier05/12/2022 10:09:21 OT (0D 0H 5M ago)
ThuramSoldier05/12/2022 10:09:21 OT (0D 0H 5M ago)
LonelyySoldier05/12/2022 10:09:21 OT (0D 0H 5M ago)
WaeSoldier05/12/2022 10:09:21 OT (0D 0H 5M ago)
FozanSoldier05/12/2022 10:09:21 OT (0D 0H 5M ago)
BersmanSoldier05/12/2022 10:09:21 OT (0D 0H 5M ago)
LatitanteSoldier05/12/2022 10:09:21 OT (0D 0H 5M ago)
KilicxSoldier05/12/2022 10:09:21 OT (0D 0H 5M ago)
CyleSoldier05/12/2022 10:09:21 OT (0D 0H 5M ago)
ZewSoldier05/12/2022 10:09:21 OT (0D 0H 5M ago)
MoriSoldier05/12/2022 10:09:21 OT (0D 0H 5M ago)
OfeSoldier05/12/2022 10:09:21 OT (0D 0H 5M ago)
KeqSoldier05/12/2022 10:09:21 OT (0D 0H 5M ago)
IvySoldier05/12/2022 10:09:21 OT (0D 0H 5M ago)
ErtSoldier05/12/2022 10:09:21 OT (0D 0H 5M ago)
YenuSoldier05/12/2022 10:09:21 OT (0D 0H 5M ago)
PunkSoldier05/12/2022 10:09:21 OT (0D 0H 5M ago)
BrugSoldier05/12/2022 10:09:21 OT (0D 0H 5M ago)
GanjaSoldier05/12/2022 10:09:21 OT (0D 0H 5M ago)
YehuddaSoldier05/12/2022 10:09:21 OT (0D 0H 5M ago)
SkcSoldier05/12/2022 10:09:21 OT (0D 0H 5M ago)
VascoSoldier05/12/2022 10:09:21 OT (0D 0H 5M ago)
LolsSoldier05/12/2022 10:09:21 OT (0D 0H 5M ago)
NureSoldier05/12/2022 10:09:21 OT (0D 0H 5M ago)
CanoSoldier05/12/2022 10:09:21 OT (0D 0H 5M ago)
BociSoldier05/12/2022 10:09:21 OT (0D 0H 5M ago)
AyucukSoldier05/12/2022 10:09:21 OT (0D 0H 5M ago)
DrcanpolatSoldier05/12/2022 10:09:21 OT (0D 0H 5M ago)
SusSoldier05/12/2022 10:09:21 OT (0D 0H 5M ago)
LimeSoldier05/12/2022 10:09:21 OT (0D 0H 5M ago)
MarlaSoldier05/12/2022 10:09:21 OT (0D 0H 5M ago)
NandySoldier05/12/2022 10:09:21 OT (0D 0H 5M ago)
JoesySoldier05/12/2022 10:09:21 OT (0D 0H 5M ago)
RuskySoldier05/12/2022 10:09:21 OT (0D 0H 5M ago)
KalpSoldier05/12/2022 10:09:21 OT (0D 0H 5M ago)
IronSwindler26/11/2022 19:54:22 OT (8D 14H 20M ago)
NisanSwindler26/11/2022 21:30:28 OT (8D 12H 43M ago)
MrxSwindler27/11/2022 14:21:07 OT (7D 19H 53M ago)
AsaSwindler27/11/2022 20:22:16 OT (7D 13H 52M ago)
FederalSwindler28/11/2022 01:38:07 OT (7D 8H 36M ago)
ElbetbirgunSwindler28/11/2022 06:28:07 OT (7D 3H 46M ago)
CreativeSwindler28/11/2022 07:57:10 OT (7D 2H 17M ago)
JbSwindler28/11/2022 22:00:09 OT (6D 12H 14M ago)
BattosaiSwindler29/11/2022 09:25:14 OT (6D 0H 49M ago)
EmilySwindler30/11/2022 10:01:07 OT (5D 0H 13M ago)
XamuSwindler30/11/2022 12:22:22 OT (4D 21H 52M ago)
QazwiSwindler30/11/2022 18:15:11 OT (4D 15H 59M ago)
XifohiSwindler30/11/2022 18:20:29 OT (4D 15H 53M ago)
FranklinSwindler30/11/2022 19:25:06 OT (4D 14H 49M ago)
QexSwindler01/12/2022 04:10:14 OT (4D 6H 4M ago)
MiyagiSwindler01/12/2022 14:26:22 OT (3D 19H 48M ago)
AlexSwindler01/12/2022 20:27:13 OT (3D 13H 47M ago)
NilaSwindler02/12/2022 09:30:27 OT (3D 0H 43M ago)
PiyazSwindler02/12/2022 09:38:17 OT (3D 0H 36M ago)
MixiSwindler02/12/2022 09:38:17 OT (3D 0H 36M ago)
HelvaSwindler02/12/2022 09:52:18 OT (3D 0H 22M ago)
MatSwindler02/12/2022 09:52:18 OT (3D 0H 22M ago)
KeboSwindler02/12/2022 13:02:18 OT (2D 21H 12M ago)
AntSwindler02/12/2022 16:41:06 OT (2D 17H 33M ago)
HalSwindler02/12/2022 17:56:27 OT (2D 16H 17M ago)
VivaSwindler02/12/2022 18:05:05 OT (2D 16H 9M ago)
BenzSwindler02/12/2022 18:05:05 OT (2D 16H 9M ago)
TugaySwindler02/12/2022 18:11:06 OT (2D 16H 3M ago)
VotkaSwindler02/12/2022 18:28:30 OT (2D 15H 45M ago)
SerinSwindler02/12/2022 19:02:23 OT (2D 15H 12M ago)
KurtSwindler02/12/2022 19:45:10 OT (2D 14H 29M ago)
MenSwindler02/12/2022 20:23:07 OT (2D 13H 51M ago)
SafSwindler02/12/2022 20:31:08 OT (2D 13H 43M ago)
EtikSwindler02/12/2022 20:35:07 OT (2D 13H 39M ago)
ErcekSwindler02/12/2022 20:35:07 OT (2D 13H 39M ago)
YasaSwindler02/12/2022 21:42:23 OT (2D 12H 32M ago)
BilimSwindler02/12/2022 21:47:07 OT (2D 12H 27M ago)
BeyazSwindler02/12/2022 22:00:22 OT (2D 12H 14M ago)
AlfSwindler02/12/2022 23:56:14 OT (2D 10H 18M ago)
SezSwindler03/12/2022 00:14:11 OT (2D 10H 0M ago)
MoncoeurSwindler03/12/2022 03:02:12 OT (2D 7H 12M ago)
VadiSwindler03/12/2022 06:41:06 OT (2D 3H 33M ago)
HasSwindler03/12/2022 06:41:06 OT (2D 3H 33M ago)
BenSwindler03/12/2022 06:41:06 OT (2D 3H 33M ago)
FasSwindler03/12/2022 06:48:13 OT (2D 3H 26M ago)
VezirSwindler03/12/2022 07:04:15 OT (2D 3H 10M ago)
ValiSwindler03/12/2022 07:12:17 OT (2D 3H 2M ago)
MarkizSwindler03/12/2022 07:15:06 OT (2D 2H 59M ago)
VazoSwindler03/12/2022 07:15:06 OT (2D 2H 59M ago)
KavakSwindler03/12/2022 07:26:16 OT (2D 2H 48M ago)
HavaSwindler03/12/2022 07:47:04 OT (2D 2H 27M ago)
RepoSwindler03/12/2022 07:52:16 OT (2D 2H 22M ago)
FesSwindler03/12/2022 07:55:05 OT (2D 2H 19M ago)
SeviSwindler03/12/2022 09:48:28 OT (2D 0H 25M ago)
VidaSwindler03/12/2022 09:48:28 OT (2D 0H 25M ago)
TenSwindler03/12/2022 09:55:06 OT (2D 0H 19M ago)
GazSwindler03/12/2022 09:55:06 OT (2D 0H 19M ago)
ManiSwindler03/12/2022 10:00:24 OT (2D 0H 14M ago)
KartSwindler03/12/2022 10:07:06 OT (2D 0H 7M ago)
SiyahSwindler03/12/2022 10:07:06 OT (2D 0H 7M ago)
YanSwindler03/12/2022 10:13:06 OT (2D 0H 1M ago)
CaraSwindler03/12/2022 10:20:24 OT (1D 23H 54M ago)
KorSwindler03/12/2022 10:20:24 OT (1D 23H 54M ago)
BizSwindler03/12/2022 10:20:24 OT (1D 23H 54M ago)
SenSwindler03/12/2022 10:20:24 OT (1D 23H 54M ago)
NamSwindler03/12/2022 10:20:24 OT (1D 23H 54M ago)
LaloSwindler03/12/2022 10:20:24 OT (1D 23H 54M ago)
KilaSwindler03/12/2022 10:28:23 OT (1D 23H 46M ago)
KaleSwindler03/12/2022 10:28:23 OT (1D 23H 46M ago)
CaniSwindler03/12/2022 10:51:07 OT (1D 23H 23M ago)
YazkSwindler03/12/2022 10:54:20 OT (1D 23H 20M ago)
YankSwindler03/12/2022 10:54:20 OT (1D 23H 20M ago)
RankSwindler03/12/2022 11:00:25 OT (1D 23H 14M ago)
ElfSwindler03/12/2022 11:00:25 OT (1D 23H 14M ago)
ErknSwindler03/12/2022 11:00:25 OT (1D 23H 14M ago)
OlfSwindler03/12/2022 11:08:20 OT (1D 23H 6M ago)
TeleSwindler03/12/2022 11:12:23 OT (1D 23H 2M ago)
LamSwindler03/12/2022 11:12:23 OT (1D 23H 2M ago)
HaboSwindler03/12/2022 11:19:06 OT (1D 22H 55M ago)
RomSwindler03/12/2022 11:22:20 OT (1D 22H 52M ago)
BerSwindler03/12/2022 11:26:24 OT (1D 22H 48M ago)
LalSwindler03/12/2022 11:32:20 OT (1D 22H 42M ago)
NetSwindler03/12/2022 12:48:27 OT (1D 21H 25M ago)
MercedesSwindler03/12/2022 13:31:06 OT (1D 20H 43M ago)
DepecheSwindler03/12/2022 14:00:25 OT (1D 20H 14M ago)
MorSwindler03/12/2022 14:06:25 OT (1D 20H 8M ago)
BirSwindler03/12/2022 15:20:17 OT (1D 18H 54M ago)
CemSwindler03/12/2022 15:27:08 OT (1D 18H 47M ago)
KelSwindler03/12/2022 15:31:07 OT (1D 18H 43M ago)
MilSwindler03/12/2022 15:38:20 OT (1D 18H 36M ago)
PesSwindler03/12/2022 17:24:22 OT (1D 16H 50M ago)
FareSwindler03/12/2022 18:03:08 OT (1D 16H 11M ago)
KiroSwindler03/12/2022 18:46:19 OT (1D 15H 28M ago)
NebuSwindler03/12/2022 18:46:19 OT (1D 15H 28M ago)
DoyoSwindler03/12/2022 18:46:19 OT (1D 15H 28M ago)
HuntSwindler03/12/2022 18:52:23 OT (1D 15H 22M ago)
JonaSwindler03/12/2022 18:52:23 OT (1D 15H 22M ago)
DocSwindler03/12/2022 18:52:23 OT (1D 15H 22M ago)
LabuSwindler03/12/2022 18:57:06 OT (1D 15H 17M ago)
TurpSwindler03/12/2022 19:16:17 OT (1D 14H 58M ago)
AmazonSwindler03/12/2022 19:26:20 OT (1D 14H 48M ago)
TozSwindler03/12/2022 19:26:20 OT (1D 14H 48M ago)
NaneSwindler03/12/2022 19:26:20 OT (1D 14H 48M ago)
UmutSwindler03/12/2022 19:32:22 OT (1D 14H 42M ago)
BinSwindler03/12/2022 19:32:22 OT (1D 14H 42M ago)
KozSwindler03/12/2022 19:32:22 OT (1D 14H 42M ago)
TekSwindler03/12/2022 19:32:22 OT (1D 14H 42M ago)
TanSwindler03/12/2022 19:38:23 OT (1D 14H 36M ago)
ErikSwindler03/12/2022 19:38:23 OT (1D 14H 36M ago)
MadrigalSwindler03/12/2022 19:38:23 OT (1D 14H 36M ago)
KavunSwindler03/12/2022 19:52:24 OT (1D 14H 22M ago)
MarkSwindler03/12/2022 19:52:24 OT (1D 14H 22M ago)
TedaviSwindler03/12/2022 19:52:24 OT (1D 14H 22M ago)
SanatSwindler03/12/2022 20:21:06 OT (1D 13H 53M ago)
FalaSwindler03/12/2022 20:55:06 OT (1D 13H 19M ago)
VanSwindler03/12/2022 22:07:06 OT (1D 12H 7M ago)
QixessSwindler03/12/2022 23:11:06 OT (1D 11H 3M ago)
ChesterSwindler04/12/2022 00:32:16 OT (1D 9H 42M ago)
DamSwindler04/12/2022 01:24:16 OT (1D 8H 50M ago)
EgoSwindler04/12/2022 01:31:05 OT (1D 8H 43M ago)
FalSwindler04/12/2022 01:31:05 OT (1D 8H 43M ago)
KediSwindler04/12/2022 01:31:05 OT (1D 8H 43M ago)
DeriSwindler04/12/2022 01:31:05 OT (1D 8H 43M ago)
KentSwindler04/12/2022 01:31:05 OT (1D 8H 43M ago)
GeceSwindler04/12/2022 01:31:05 OT (1D 8H 43M ago)
KolaSwindler04/12/2022 01:31:05 OT (1D 8H 43M ago)
AsiSwindler04/12/2022 01:31:05 OT (1D 8H 43M ago)
NilSwindler04/12/2022 01:31:05 OT (1D 8H 43M ago)
SazSwindler04/12/2022 01:38:14 OT (1D 8H 36M ago)
BaraSwindler04/12/2022 01:38:14 OT (1D 8H 36M ago)
HatSwindler04/12/2022 01:38:14 OT (1D 8H 36M ago)
PasSwindler04/12/2022 01:38:14 OT (1D 8H 36M ago)
KumSwindler04/12/2022 03:30:13 OT (1D 6H 44M ago)
HakSwindler04/12/2022 07:10:17 OT (1D 3H 4M ago)
CebSwindler04/12/2022 08:58:16 OT (1D 1H 16M ago)
AlonsoSwindler04/12/2022 10:13:04 OT (1D 0H 1M ago)
SwapperSwindler04/12/2022 11:33:08 OT (0D 22H 41M ago)
CanSwindler04/12/2022 12:21:07 OT (0D 21H 53M ago)
EllenaSwindler04/12/2022 14:11:06 OT (0D 20H 3M ago)
KekSwindler04/12/2022 14:25:07 OT (0D 19H 49M ago)
PersSwindler04/12/2022 15:06:21 OT (0D 19H 8M ago)
FundySwindler04/12/2022 16:06:34 OT (0D 18H 7M ago)
LuanSwindler04/12/2022 16:19:17 OT (0D 17H 55M ago)
RukiSwindler04/12/2022 16:31:14 OT (0D 17H 43M ago)
MacaoSwindler04/12/2022 16:31:14 OT (0D 17H 43M ago)
EwersSwindler04/12/2022 17:01:08 OT (0D 17H 13M ago)
ClubSwindler04/12/2022 17:14:24 OT (0D 17H 0M ago)
KripSwindler04/12/2022 17:54:20 OT (0D 16H 20M ago)
MozartSwindler04/12/2022 18:45:18 OT (0D 15H 29M ago)
MaroSwindler04/12/2022 19:03:08 OT (0D 15H 11M ago)
FortunaSwindler04/12/2022 20:21:10 OT (0D 13H 53M ago)
SalkimSwindler04/12/2022 21:56:07 OT (0D 12H 18M ago)
ErodSwindler05/12/2022 00:09:14 OT (0D 10H 5M ago)
PrbSwindler05/12/2022 01:07:14 OT (0D 9H 7M ago)
BaldurSwindler05/12/2022 01:16:05 OT (0D 8H 58M ago)
SiopsSwindler05/12/2022 02:13:13 OT (0D 8H 1M ago)
ManyakSwindler05/12/2022 06:01:16 OT (0D 4H 13M ago)
JnxSwindler05/12/2022 07:01:18 OT (0D 3H 13M ago)
AyatSwindler05/12/2022 07:01:18 OT (0D 3H 13M ago)
NosaSwindler05/12/2022 07:46:04 OT (0D 2H 28M ago)
AfroboySwindler05/12/2022 07:46:04 OT (0D 2H 28M ago)
CangaSwindler05/12/2022 08:01:19 OT (0D 2H 13M ago)
DrSwindler05/12/2022 08:28:06 OT (0D 1H 46M ago)
DayiSwindler05/12/2022 08:43:24 OT (0D 1H 31M ago)
SharbSwindler05/12/2022 09:10:06 OT (0D 1H 4M ago)
EnpiSwindler05/12/2022 09:25:22 OT (0D 0H 49M ago)
ZicoSwindler05/12/2022 09:32:07 OT (0D 0H 42M ago)
ElchapoSwindler05/12/2022 09:32:07 OT (0D 0H 42M ago)
ArnavutSwindler05/12/2022 09:40:05 OT (0D 0H 34M ago)
MamiSwindler05/12/2022 10:01:22 OT (0D 0H 13M ago)
AnzSwindler05/12/2022 10:01:22 OT (0D 0H 13M ago)
LatisSwindler05/12/2022 10:09:21 OT (0D 0H 5M ago)
MoosSwindler05/12/2022 10:09:21 OT (0D 0H 5M ago)
CiroSwindler05/12/2022 10:09:21 OT (0D 0H 5M ago)
BoSwindler05/12/2022 10:09:21 OT (0D 0H 5M ago)
MidasSwindler05/12/2022 10:09:21 OT (0D 0H 5M ago)
AtumSwindler05/12/2022 10:09:21 OT (0D 0H 5M ago)
OmikoSwindler05/12/2022 10:09:21 OT (0D 0H 5M ago)
AnchorageSwindler05/12/2022 10:09:21 OT (0D 0H 5M ago)
JosephSwindler05/12/2022 10:09:21 OT (0D 0H 5M ago)
DonkongSwindler05/12/2022 10:09:21 OT (0D 0H 5M ago)
HeroSwindler05/12/2022 10:09:21 OT (0D 0H 5M ago)
ElektroSwindler05/12/2022 10:09:21 OT (0D 0H 5M ago)
BebishSwindler05/12/2022 10:09:21 OT (0D 0H 5M ago)
LillySwindler05/12/2022 10:09:21 OT (0D 0H 5M ago)
TsvnSwindler05/12/2022 10:09:21 OT (0D 0H 5M ago)
BicyoSwindler05/12/2022 10:09:21 OT (0D 0H 5M ago)
SandkingSwindler05/12/2022 10:09:21 OT (0D 0H 5M ago)
HarSwindler05/12/2022 10:09:21 OT (0D 0H 5M ago)
LkailSwindler05/12/2022 10:09:21 OT (0D 0H 5M ago)
FaciSwindler05/12/2022 10:09:21 OT (0D 0H 5M ago)
GierlucasSwindler05/12/2022 10:09:21 OT (0D 0H 5M ago)
KaremSwindler05/12/2022 10:09:21 OT (0D 0H 5M ago)
SaykoSwindler05/12/2022 10:09:21 OT (0D 0H 5M ago)
CwSwindler05/12/2022 10:09:21 OT (0D 0H 5M ago)
PparisSwindler05/12/2022 10:09:21 OT (0D 0H 5M ago)
GrosSwindler05/12/2022 10:09:21 OT (0D 0H 5M ago)
AngeSwindler05/12/2022 10:09:21 OT (0D 0H 5M ago)
BarbarosSwindler05/12/2022 10:09:21 OT (0D 0H 5M ago)
AtillaSwindler05/12/2022 10:09:21 OT (0D 0H 5M ago)
AzatSwindler05/12/2022 10:09:21 OT (0D 0H 5M ago)
PaksSwindler05/12/2022 10:09:21 OT (0D 0H 5M ago)
KevinSwindler05/12/2022 10:09:21 OT (0D 0H 5M ago)
ZosaSwindler05/12/2022 10:09:21 OT (0D 0H 5M ago)
MskayaSwindler05/12/2022 10:09:21 OT (0D 0H 5M ago)
MoaSwindler05/12/2022 10:09:21 OT (0D 0H 5M ago)
MstrchefSwindler05/12/2022 10:09:21 OT (0D 0H 5M ago)
MetebaskanSwindler05/12/2022 10:09:21 OT (0D 0H 5M ago)
GossipSwindler05/12/2022 10:09:21 OT (0D 0H 5M ago)
CinnnetSwindler05/12/2022 10:09:21 OT (0D 0H 5M ago)
JameikaSwindler05/12/2022 10:09:21 OT (0D 0H 5M ago)
AtessSwindler05/12/2022 10:09:21 OT (0D 0H 5M ago)
GoztepeSwindler05/12/2022 10:09:21 OT (0D 0H 5M ago)
KuluxSwindler05/12/2022 10:09:21 OT (0D 0H 5M ago)
HadesSwindler05/12/2022 10:09:21 OT (0D 0H 5M ago)
TaladroSwindler05/12/2022 10:09:21 OT (0D 0H 5M ago)
EdenSwindler05/12/2022 10:09:21 OT (0D 0H 5M ago)
JaxleeSwindler05/12/2022 10:09:21 OT (0D 0H 5M ago)
ChristSwindler05/12/2022 10:09:21 OT (0D 0H 5M ago)
LeninSwindler05/12/2022 10:09:21 OT (0D 0H 5M ago)
BadrhariSwindler05/12/2022 10:09:21 OT (0D 0H 5M ago)
PierreSwindler05/12/2022 10:09:21 OT (0D 0H 5M ago)
MexicaSwindler05/12/2022 10:09:21 OT (0D 0H 5M ago)
AlperenSwindler05/12/2022 10:09:21 OT (0D 0H 5M ago)
ObentSwindler05/12/2022 10:09:21 OT (0D 0H 5M ago)
TottiSwindler05/12/2022 10:09:21 OT (0D 0H 5M ago)
RyuSwindler05/12/2022 10:09:21 OT (0D 0H 5M ago)
GnomeboiSwindler05/12/2022 10:09:21 OT (0D 0H 5M ago)
RellikSwindler05/12/2022 10:09:21 OT (0D 0H 5M ago)
DeltaSwindler05/12/2022 10:09:21 OT (0D 0H 5M ago)
RutbeliSwindler05/12/2022 10:09:21 OT (0D 0H 5M ago)
EchoSwindler05/12/2022 10:09:21 OT (0D 0H 5M ago)
GdladySwindler05/12/2022 10:09:21 OT (0D 0H 5M ago)
DeckSwindler05/12/2022 10:09:21 OT (0D 0H 5M ago)
CreateSwindler05/12/2022 10:09:21 OT (0D 0H 5M ago)
MinbuSwindler05/12/2022 10:09:21 OT (0D 0H 5M ago)
DmrSwindler05/12/2022 10:09:21 OT (0D 0H 5M ago)
BommSwindler05/12/2022 10:09:21 OT (0D 0H 5M ago)
NateSwindler05/12/2022 10:09:21 OT (0D 0H 5M ago)
PerdaSwindler05/12/2022 10:09:21 OT (0D 0H 5M ago)
TatumSwindler05/12/2022 10:09:21 OT (0D 0H 5M ago)
AlphaSwindler05/12/2022 10:09:21 OT (0D 0H 5M ago)
BroSwindler05/12/2022 10:09:21 OT (0D 0H 5M ago)
SurvivorSwindler05/12/2022 10:09:21 OT (0D 0H 5M ago)
XandalSwindler05/12/2022 10:09:21 OT (0D 0H 5M ago)
JobatSwindler05/12/2022 10:09:21 OT (0D 0H 5M ago)
MishSwindler05/12/2022 10:09:21 OT (0D 0H 5M ago)
UrsoSwindler05/12/2022 10:09:21 OT (0D 0H 5M ago)
FoeSwindler05/12/2022 10:09:21 OT (0D 0H 5M ago)
AndSwindler05/12/2022 10:09:21 OT (0D 0H 5M ago)
LuSwindler05/12/2022 10:09:21 OT (0D 0H 5M ago)
HotaiSwindler05/12/2022 10:09:21 OT (0D 0H 5M ago)
OySwindler05/12/2022 10:09:21 OT (0D 0H 5M ago)
OliverSwindler05/12/2022 10:09:21 OT (0D 0H 5M ago)
NoSwindler05/12/2022 10:09:21 OT (0D 0H 5M ago)
DaySwindler05/12/2022 10:09:21 OT (0D 0H 5M ago)
FridgeSwindler05/12/2022 10:09:21 OT (0D 0H 5M ago)
FoxeSwindler05/12/2022 10:09:21 OT (0D 0H 5M ago)
CharlieSwindler05/12/2022 10:09:21 OT (0D 0H 5M ago)
DimosSwindler05/12/2022 10:09:21 OT (0D 0H 5M ago)
WesterSwindler05/12/2022 10:09:21 OT (0D 0H 5M ago)
TetrisSwindler05/12/2022 10:09:21 OT (0D 0H 5M ago)
GalioSwindler05/12/2022 10:09:21 OT (0D 0H 5M ago)
BetaSwindler05/12/2022 10:09:21 OT (0D 0H 5M ago)
JunoSwindler05/12/2022 10:09:21 OT (0D 0H 5M ago)
ImpoSwindler05/12/2022 10:09:21 OT (0D 0H 5M ago)
ArcignoSwindler05/12/2022 10:09:21 OT (0D 0H 5M ago)
SarahaSwindler05/12/2022 10:09:21 OT (0D 0H 5M ago)
NewestSwindler05/12/2022 10:09:21 OT (0D 0H 5M ago)
KanangaSwindler05/12/2022 10:09:21 OT (0D 0H 5M ago)
InoxSwindler05/12/2022 10:09:21 OT (0D 0H 5M ago)
DraghiSwindler05/12/2022 10:09:21 OT (0D 0H 5M ago)
ArthurSwindler05/12/2022 10:09:21 OT (0D 0H 5M ago)
SphereSwindler05/12/2022 10:09:21 OT (0D 0H 5M ago)
SolsikkeSwindler05/12/2022 10:09:21 OT (0D 0H 5M ago)
HarbourSwindler05/12/2022 10:09:21 OT (0D 0H 5M ago)
AhmetSwindler05/12/2022 10:09:21 OT (0D 0H 5M ago)
HjoneSwindler05/12/2022 10:09:21 OT (0D 0H 5M ago)
TalasSwindler05/12/2022 10:09:21 OT (0D 0H 5M ago)
SuSwindler05/12/2022 10:09:21 OT (0D 0H 5M ago)
NorthSwindler05/12/2022 10:09:21 OT (0D 0H 5M ago)
IngameSwindler05/12/2022 10:09:21 OT (0D 0H 5M ago)
BrzSwindler05/12/2022 10:09:21 OT (0D 0H 5M ago)
GoldSwindler05/12/2022 10:09:21 OT (0D 0H 5M ago)
BadboySwindler05/12/2022 10:09:21 OT (0D 0H 5M ago)
BruynSwindler05/12/2022 10:09:21 OT (0D 0H 5M ago)
YassaSwindler05/12/2022 10:09:21 OT (0D 0H 5M ago)
BecksSwindler05/12/2022 10:09:21 OT (0D 0H 5M ago)
CccSwindler05/12/2022 10:09:21 OT (0D 0H 5M ago)
SakaSwindler05/12/2022 10:09:21 OT (0D 0H 5M ago)
KjSwindler05/12/2022 10:09:21 OT (0D 0H 5M ago)
NetoSwindler05/12/2022 10:09:21 OT (0D 0H 5M ago)
JebilSwindler05/12/2022 10:09:21 OT (0D 0H 5M ago)
TunaSwindler05/12/2022 10:09:21 OT (0D 0H 5M ago)
DekolSwindler05/12/2022 10:09:21 OT (0D 0H 5M ago)
RecklessSwindler05/12/2022 10:09:21 OT (0D 0H 5M ago)
BaggioAssassin29/11/2022 17:12:18 OT (5D 17H 2M ago)
XoxAssassin29/11/2022 23:58:17 OT (5D 10H 16M ago)
MnmAssassin01/12/2022 17:04:21 OT (3D 17H 10M ago)
DushaneAssassin03/12/2022 16:20:20 OT (1D 17H 54M ago)
ElylaraAssassin03/12/2022 17:57:06 OT (1D 16H 17M ago)
CheezyAssassin04/12/2022 16:25:13 OT (0D 17H 49M ago)
TutecsAssassin04/12/2022 16:25:13 OT (0D 17H 49M ago)
BlendAssassin04/12/2022 18:27:08 OT (0D 15H 47M ago)
FiroAssassin04/12/2022 22:25:19 OT (0D 11H 49M ago)
ThomasAssassin05/12/2022 02:20:05 OT (0D 7H 54M ago)
RomanianAssassin05/12/2022 07:39:19 OT (0D 2H 35M ago)
RokkAssassin05/12/2022 08:37:18 OT (0D 1H 37M ago)
GraceAssassin05/12/2022 09:32:07 OT (0D 0H 42M ago)
SahbazzAssassin05/12/2022 10:01:22 OT (0D 0H 13M ago)
FtmAssassin05/12/2022 10:09:21 OT (0D 0H 5M ago)
BiargiAssassin05/12/2022 10:09:21 OT (0D 0H 5M ago)
HungerAssassin05/12/2022 10:09:21 OT (0D 0H 5M ago)
FfAssassin05/12/2022 10:09:21 OT (0D 0H 5M ago)
HautbrionAssassin05/12/2022 10:09:21 OT (0D 0H 5M ago)
OzdAssassin05/12/2022 10:09:21 OT (0D 0H 5M ago)
ToyAssassin05/12/2022 10:09:21 OT (0D 0H 5M ago)
JossyAssassin05/12/2022 10:09:21 OT (0D 0H 5M ago)
PiazzaAssassin05/12/2022 10:09:21 OT (0D 0H 5M ago)
YaneAssassin05/12/2022 10:09:21 OT (0D 0H 5M ago)
BarneyAssassin05/12/2022 10:09:21 OT (0D 0H 5M ago)
ManeAssassin05/12/2022 10:09:21 OT (0D 0H 5M ago)
VigoAssassin05/12/2022 10:09:21 OT (0D 0H 5M ago)
FenyrAssassin05/12/2022 10:09:21 OT (0D 0H 5M ago)
BaycoAssassin05/12/2022 10:09:21 OT (0D 0H 5M ago)
BigbangAssassin05/12/2022 10:09:21 OT (0D 0H 5M ago)
UbernewbAssassin05/12/2022 10:09:21 OT (0D 0H 5M ago)
AxelAssassin05/12/2022 10:09:21 OT (0D 0H 5M ago)
YxzAssassin05/12/2022 10:09:21 OT (0D 0H 5M ago)
CoffeAssassin05/12/2022 10:09:21 OT (0D 0H 5M ago)
SuloAssassin05/12/2022 10:09:21 OT (0D 0H 5M ago)
ZoeAssassin05/12/2022 10:09:21 OT (0D 0H 5M ago)
MedmarinAssassin05/12/2022 10:09:21 OT (0D 0H 5M ago)
BrroAssassin05/12/2022 10:09:21 OT (0D 0H 5M ago)
DenoAssassin05/12/2022 10:09:21 OT (0D 0H 5M ago)
NaoAssassin05/12/2022 10:09:21 OT (0D 0H 5M ago)
HoiAssassin05/12/2022 10:09:21 OT (0D 0H 5M ago)
GermanAssassin05/12/2022 10:09:21 OT (0D 0H 5M ago)
KlopAssassin05/12/2022 10:09:21 OT (0D 0H 5M ago)
SephAssassin05/12/2022 10:09:21 OT (0D 0H 5M ago)
NefAssassin05/12/2022 10:09:21 OT (0D 0H 5M ago)
HocaAssassin05/12/2022 10:09:21 OT (0D 0H 5M ago)
TheAssassin05/12/2022 10:09:21 OT (0D 0H 5M ago)
FelixAssassin05/12/2022 10:09:21 OT (0D 0H 5M ago)
CznAssassin05/12/2022 10:09:21 OT (0D 0H 5M ago)
GopAssassin05/12/2022 10:09:21 OT (0D 0H 5M ago)
ZenyaAssassin05/12/2022 10:09:21 OT (0D 0H 5M ago)
EtoAssassin05/12/2022 10:09:21 OT (0D 0H 5M ago)
JenAssassin05/12/2022 10:09:21 OT (0D 0H 5M ago)
NebAssassin05/12/2022 10:09:21 OT (0D 0H 5M ago)
RangeAssassin05/12/2022 10:09:21 OT (0D 0H 5M ago)
ShandaAssassin05/12/2022 10:09:21 OT (0D 0H 5M ago)
ZoenAssassin05/12/2022 10:09:21 OT (0D 0H 5M ago)
ToruAssassin05/12/2022 10:09:21 OT (0D 0H 5M ago)
ZortoAssassin05/12/2022 10:09:21 OT (0D 0H 5M ago)
EmincanAssassin05/12/2022 10:09:21 OT (0D 0H 5M ago)
DakotaAssassin05/12/2022 10:09:21 OT (0D 0H 5M ago)
GanaAssassin05/12/2022 10:09:21 OT (0D 0H 5M ago)
DuexAssassin05/12/2022 10:09:21 OT (0D 0H 5M ago)
RewAssassin05/12/2022 10:09:21 OT (0D 0H 5M ago)
CigaAssassin05/12/2022 10:09:21 OT (0D 0H 5M ago)
KuyerAssassin05/12/2022 10:09:21 OT (0D 0H 5M ago)
AwayAssassin05/12/2022 10:09:21 OT (0D 0H 5M ago)
AnkenAssassin05/12/2022 10:09:21 OT (0D 0H 5M ago)
MutluAssassin05/12/2022 10:09:21 OT (0D 0H 5M ago)
KronAssassin05/12/2022 10:09:21 OT (0D 0H 5M ago)
BerisAssassin05/12/2022 10:09:21 OT (0D 0H 5M ago)
VeraAssassin05/12/2022 10:09:21 OT (0D 0H 5M ago)
HapyAssassin05/12/2022 10:09:21 OT (0D 0H 5M ago)
EkAssassin05/12/2022 10:09:21 OT (0D 0H 5M ago)
KaneAssassin05/12/2022 10:09:21 OT (0D 0H 5M ago)
TeoAssassin05/12/2022 10:09:21 OT (0D 0H 5M ago)
FeanorAssassin05/12/2022 10:09:21 OT (0D 0H 5M ago)
WonAssassin05/12/2022 10:09:21 OT (0D 0H 5M ago)
PutaAssassin05/12/2022 10:09:21 OT (0D 0H 5M ago)
FoloxAssassin05/12/2022 10:09:21 OT (0D 0H 5M ago)
XecaAssassin05/12/2022 10:09:21 OT (0D 0H 5M ago)
LoveAssassin05/12/2022 10:09:21 OT (0D 0H 5M ago)
MoAssassin05/12/2022 10:09:21 OT (0D 0H 5M ago)
ZeesAssassin05/12/2022 10:09:21 OT (0D 0H 5M ago)
ExpAssassin05/12/2022 10:09:21 OT (0D 0H 5M ago)
SwainAssassin05/12/2022 10:09:21 OT (0D 0H 5M ago)
SterAssassin05/12/2022 10:09:21 OT (0D 0H 5M ago)
PhilippeAssassin05/12/2022 10:09:21 OT (0D 0H 5M ago)
FedAssassin05/12/2022 10:09:21 OT (0D 0H 5M ago)
SimpleAssassin05/12/2022 10:09:21 OT (0D 0H 5M ago)
BantoAssassin05/12/2022 10:09:21 OT (0D 0H 5M ago)
YgtAssassin05/12/2022 10:09:21 OT (0D 0H 5M ago)
YaseAssassin05/12/2022 10:09:21 OT (0D 0H 5M ago)
AlmaAssassin05/12/2022 10:09:21 OT (0D 0H 5M ago)
BillyAssassin05/12/2022 10:09:21 OT (0D 0H 5M ago)
MelekAssassin05/12/2022 10:09:21 OT (0D 0H 5M ago)
BoneAssassin05/12/2022 10:09:21 OT (0D 0H 5M ago)
GlockAssassin05/12/2022 10:09:21 OT (0D 0H 5M ago)
NordeAssassin05/12/2022 10:09:21 OT (0D 0H 5M ago)
ChampAssassin05/12/2022 10:09:21 OT (0D 0H 5M ago)
CanepAssassin05/12/2022 10:09:21 OT (0D 0H 5M ago)
TerorAssassin05/12/2022 10:09:21 OT (0D 0H 5M ago)
VidalAssassin05/12/2022 10:09:21 OT (0D 0H 5M ago)
CanavAssassin05/12/2022 10:09:21 OT (0D 0H 5M ago)
QuartzAssassin05/12/2022 10:09:21 OT (0D 0H 5M ago)
BosseAssassin05/12/2022 10:09:21 OT (0D 0H 5M ago)
WaceAssassin05/12/2022 10:09:21 OT (0D 0H 5M ago)
NorsAssassin05/12/2022 10:09:21 OT (0D 0H 5M ago)
CixAssassin05/12/2022 10:09:21 OT (0D 0H 5M ago)
JumboAssassin05/12/2022 10:09:21 OT (0D 0H 5M ago)
GokyAssassin05/12/2022 10:09:21 OT (0D 0H 5M ago)
LadyAssassin05/12/2022 10:09:21 OT (0D 0H 5M ago)
HondaAssassin05/12/2022 10:09:21 OT (0D 0H 5M ago)
GewendeAssassin05/12/2022 10:09:21 OT (0D 0H 5M ago)
HorasAssassin05/12/2022 10:09:21 OT (0D 0H 5M ago)
KeneAssassin05/12/2022 10:09:21 OT (0D 0H 5M ago)
WeroAssassin05/12/2022 10:09:21 OT (0D 0H 5M ago)
SonaAssassin05/12/2022 10:09:21 OT (0D 0H 5M ago)
RenesAssassin05/12/2022 10:09:21 OT (0D 0H 5M ago)
ErsanAssassin05/12/2022 10:09:21 OT (0D 0H 5M ago)
MessiAssassin05/12/2022 10:09:21 OT (0D 0H 5M ago)
HelenAssassin05/12/2022 10:09:21 OT (0D 0H 5M ago)
SonayAssassin05/12/2022 10:09:21 OT (0D 0H 5M ago)
NaraAssassin05/12/2022 10:09:21 OT (0D 0H 5M ago)
OtpAssassin05/12/2022 10:09:21 OT (0D 0H 5M ago)
AlioAssassin05/12/2022 10:09:21 OT (0D 0H 5M ago)
PerAssassin05/12/2022 10:09:21 OT (0D 0H 5M ago)
OnurAssassin05/12/2022 10:09:21 OT (0D 0H 5M ago)
ZyecAssassin05/12/2022 10:09:21 OT (0D 0H 5M ago)
MuganAssassin05/12/2022 10:09:21 OT (0D 0H 5M ago)
SextusAssassin05/12/2022 10:09:21 OT (0D 0H 5M ago)
SevaAssassin05/12/2022 10:09:21 OT (0D 0H 5M ago)
KanzakAssassin05/12/2022 10:09:21 OT (0D 0H 5M ago)
NaserAssassin05/12/2022 10:09:21 OT (0D 0H 5M ago)
PonieAssassin05/12/2022 10:09:21 OT (0D 0H 5M ago)
SelmanAssassin05/12/2022 10:09:21 OT (0D 0H 5M ago)
OepAssassin05/12/2022 10:09:21 OT (0D 0H 5M ago)
BottomAssassin05/12/2022 10:09:21 OT (0D 0H 5M ago)
FermoAssassin05/12/2022 10:09:21 OT (0D 0H 5M ago)
DukeAssassin05/12/2022 10:09:21 OT (0D 0H 5M ago)
AsaneAssassin05/12/2022 10:09:21 OT (0D 0H 5M ago)
NadiaAssassin05/12/2022 10:09:21 OT (0D 0H 5M ago)
ZenaAssassin05/12/2022 10:09:21 OT (0D 0H 5M ago)
AsoAssassin05/12/2022 10:09:21 OT (0D 0H 5M ago)
CruyffAssassin05/12/2022 10:09:21 OT (0D 0H 5M ago)
AlemAssassin05/12/2022 10:09:21 OT (0D 0H 5M ago)
MerveAssassin05/12/2022 10:09:21 OT (0D 0H 5M ago)
SorosAssassin05/12/2022 10:09:21 OT (0D 0H 5M ago)
PasonAssassin05/12/2022 10:09:21 OT (0D 0H 5M ago)
SnowAssassin05/12/2022 10:09:21 OT (0D 0H 5M ago)
VinnAssassin05/12/2022 10:09:21 OT (0D 0H 5M ago)
MondiAssassin05/12/2022 10:09:21 OT (0D 0H 5M ago)
PiranaAssassin05/12/2022 10:09:21 OT (0D 0H 5M ago)
DumdumAssassin05/12/2022 10:09:21 OT (0D 0H 5M ago)
MasoAssassin05/12/2022 10:09:21 OT (0D 0H 5M ago)
DoorlopenAssassin05/12/2022 10:09:21 OT (0D 0H 5M ago)
SameAssassin05/12/2022 10:09:21 OT (0D 0H 5M ago)
AnteAssassin05/12/2022 10:09:21 OT (0D 0H 5M ago)
FatemAssassin05/12/2022 10:09:21 OT (0D 0H 5M ago)
AsinAssassin05/12/2022 10:09:21 OT (0D 0H 5M ago)
VixenAssassin05/12/2022 10:09:21 OT (0D 0H 5M ago)
GodAssassin05/12/2022 10:09:21 OT (0D 0H 5M ago)
MeloAssassin05/12/2022 10:09:21 OT (0D 0H 5M ago)
SennaAssassin05/12/2022 10:09:21 OT (0D 0H 5M ago)
AztecAssassin05/12/2022 10:09:21 OT (0D 0H 5M ago)
VegoAssassin05/12/2022 10:09:21 OT (0D 0H 5M ago)
GorgoAssassin05/12/2022 10:09:21 OT (0D 0H 5M ago)
ReisAssassin05/12/2022 10:09:21 OT (0D 0H 5M ago)
NidalAssassin05/12/2022 10:09:21 OT (0D 0H 5M ago)
FigoAssassin05/12/2022 10:09:21 OT (0D 0H 5M ago)
TanyaAssassin05/12/2022 10:09:21 OT (0D 0H 5M ago)
FearfulAssassin05/12/2022 10:09:21 OT (0D 0H 5M ago)
ToneAssassin05/12/2022 10:09:21 OT (0D 0H 5M ago)
SaneAssassin05/12/2022 10:09:21 OT (0D 0H 5M ago)
ZanaxAssassin05/12/2022 10:09:21 OT (0D 0H 5M ago)
FidelAssassin05/12/2022 10:09:21 OT (0D 0H 5M ago)
AutAssassin05/12/2022 10:09:21 OT (0D 0H 5M ago)
DonaAssassin05/12/2022 10:09:21 OT (0D 0H 5M ago)
YuneAssassin05/12/2022 10:09:21 OT (0D 0H 5M ago)
GondolAssassin05/12/2022 10:09:21 OT (0D 0H 5M ago)
SharkeyAssassin05/12/2022 10:09:21 OT (0D 0H 5M ago)
HayroAssassin05/12/2022 10:09:21 OT (0D 0H 5M ago)
ToyotaAssassin05/12/2022 10:09:21 OT (0D 0H 5M ago)
BrownAssassin05/12/2022 10:09:21 OT (0D 0H 5M ago)
CortanaAssassin05/12/2022 10:09:21 OT (0D 0H 5M ago)
WallesAssassin05/12/2022 10:09:21 OT (0D 0H 5M ago)
KanoAssassin05/12/2022 10:09:21 OT (0D 0H 5M ago)
RecoAssassin05/12/2022 10:09:21 OT (0D 0H 5M ago)
AdnanAssassin05/12/2022 10:09:21 OT (0D 0H 5M ago)
AgaAssassin05/12/2022 10:09:21 OT (0D 0H 5M ago)
KutsalAssassin05/12/2022 10:09:21 OT (0D 0H 5M ago)
TatAssassin05/12/2022 10:09:21 OT (0D 0H 5M ago)
GeraltAssassin05/12/2022 10:09:21 OT (0D 0H 5M ago)
OdinAssassin05/12/2022 10:09:21 OT (0D 0H 5M ago)
SamanAssassin05/12/2022 10:09:21 OT (0D 0H 5M ago)
AgoraAssassin05/12/2022 10:09:21 OT (0D 0H 5M ago)
KateAssassin05/12/2022 10:09:21 OT (0D 0H 5M ago)
GudekAssassin05/12/2022 10:09:21 OT (0D 0H 5M ago)
FanasAssassin05/12/2022 10:09:21 OT (0D 0H 5M ago)
KaykayAssassin05/12/2022 10:09:21 OT (0D 0H 5M ago)
ParaAssassin05/12/2022 10:09:21 OT (0D 0H 5M ago)
BekAssassin05/12/2022 10:09:21 OT (0D 0H 5M ago)
DadAssassin05/12/2022 10:09:21 OT (0D 0H 5M ago)
HayaletAssassin05/12/2022 10:09:21 OT (0D 0H 5M ago)
GorillaAssassin05/12/2022 10:09:21 OT (0D 0H 5M ago)
ManavAssassin05/12/2022 10:09:21 OT (0D 0H 5M ago)
KatehAssassin05/12/2022 10:09:21 OT (0D 0H 5M ago)
WwAssassin05/12/2022 10:09:21 OT (0D 0H 5M ago)
TodayAssassin05/12/2022 10:09:21 OT (0D 0H 5M ago)
CeyloAssassin05/12/2022 10:09:21 OT (0D 0H 5M ago)
ObirmafyaAssassin05/12/2022 10:09:21 OT (0D 0H 5M ago)
BalanceAssassin05/12/2022 10:09:21 OT (0D 0H 5M ago)
IhsanAssassin05/12/2022 10:09:21 OT (0D 0H 5M ago)
DenizAssassin05/12/2022 10:09:21 OT (0D 0H 5M ago)
ResAssassin05/12/2022 10:09:21 OT (0D 0H 5M ago)
NextAssassin05/12/2022 10:09:21 OT (0D 0H 5M ago)
BookAssassin05/12/2022 10:09:21 OT (0D 0H 5M ago)
CpAssassin05/12/2022 10:09:21 OT (0D 0H 5M ago)
FerraAssassin05/12/2022 10:09:21 OT (0D 0H 5M ago)
HakkAssassin05/12/2022 10:09:21 OT (0D 0H 5M ago)
MattonAssassin05/12/2022 10:09:21 OT (0D 0H 5M ago)
SasaAssassin05/12/2022 10:09:21 OT (0D 0H 5M ago)
ZmkAssassin05/12/2022 10:09:21 OT (0D 0H 5M ago)
ParlakAssassin05/12/2022 10:09:21 OT (0D 0H 5M ago)
TomrisAssassin05/12/2022 10:09:21 OT (0D 0H 5M ago)
HazartyAssassin05/12/2022 10:09:21 OT (0D 0H 5M ago)
ZararAssassin05/12/2022 10:09:21 OT (0D 0H 5M ago)
YarasaAssassin05/12/2022 10:09:21 OT (0D 0H 5M ago)
RaticateAssassin05/12/2022 10:09:21 OT (0D 0H 5M ago)
SiaAssassin05/12/2022 10:09:21 OT (0D 0H 5M ago)
CemreAssassin05/12/2022 10:09:21 OT (0D 0H 5M ago)
BestAssassin05/12/2022 10:09:21 OT (0D 0H 5M ago)
AyazAssassin05/12/2022 10:09:21 OT (0D 0H 5M ago)
SevcanAssassin05/12/2022 10:09:21 OT (0D 0H 5M ago)
KaiAssassin05/12/2022 10:09:21 OT (0D 0H 5M ago)
BafraAssassin05/12/2022 10:09:21 OT (0D 0H 5M ago)
DanielleAssassin05/12/2022 10:09:21 OT (0D 0H 5M ago)
NewAssassin05/12/2022 10:09:21 OT (0D 0H 5M ago)
YazarAssassin05/12/2022 10:09:21 OT (0D 0H 5M ago)
YazAssassin05/12/2022 10:09:21 OT (0D 0H 5M ago)
StanAssassin05/12/2022 10:09:21 OT (0D 0H 5M ago)
JonsAssassin05/12/2022 10:09:21 OT (0D 0H 5M ago)
KamAssassin05/12/2022 10:09:21 OT (0D 0H 5M ago)
CoburnAssassin05/12/2022 10:09:21 OT (0D 0H 5M ago)
EarendelAssassin05/12/2022 10:09:21 OT (0D 0H 5M ago)
BlueAssassin05/12/2022 10:09:21 OT (0D 0H 5M ago)
PowerAssassin05/12/2022 10:09:21 OT (0D 0H 5M ago)
SunshineAssassin05/12/2022 10:09:21 OT (0D 0H 5M ago)
ClaudiaAssassin05/12/2022 10:09:21 OT (0D 0H 5M ago)
DefAssassin05/12/2022 10:09:21 OT (0D 0H 5M ago)
CahitAssassin05/12/2022 10:09:21 OT (0D 0H 5M ago)
PogbaAssassin05/12/2022 10:09:21 OT (0D 0H 5M ago)
UpAssassin05/12/2022 10:09:21 OT (0D 0H 5M ago)
FrancoAssassin05/12/2022 10:09:21 OT (0D 0H 5M ago)
QantoAssassin05/12/2022 10:09:21 OT (0D 0H 5M ago)
RotAssassin05/12/2022 10:09:21 OT (0D 0H 5M ago)
GerardAssassin05/12/2022 10:09:21 OT (0D 0H 5M ago)
SuitAssassin05/12/2022 10:09:21 OT (0D 0H 5M ago)
SamiraAssassin05/12/2022 10:09:21 OT (0D 0H 5M ago)
TucoAssassin05/12/2022 10:09:21 OT (0D 0H 5M ago)
DavidAssassin05/12/2022 10:09:21 OT (0D 0H 5M ago)
VerstappenAssassin05/12/2022 10:09:21 OT (0D 0H 5M ago)
OnceAssassin05/12/2022 10:09:21 OT (0D 0H 5M ago)
GarvoAssassin05/12/2022 10:09:21 OT (0D 0H 5M ago)
CalmacilAssassin05/12/2022 10:09:21 OT (0D 0H 5M ago)
MortyAssassin05/12/2022 10:09:21 OT (0D 0H 5M ago)
GottiAssassin05/12/2022 10:09:21 OT (0D 0H 5M ago)
BarakaAssassin05/12/2022 10:09:21 OT (0D 0H 5M ago)
ProjectAssassin05/12/2022 10:09:21 OT (0D 0H 5M ago)
IrishmanAssassin05/12/2022 10:09:21 OT (0D 0H 5M ago)
SteigerAssassin05/12/2022 10:09:21 OT (0D 0H 5M ago)
LaraAssassin05/12/2022 10:09:21 OT (0D 0H 5M ago)
ArathornAssassin05/12/2022 10:09:21 OT (0D 0H 5M ago)
RevolutionAssassin05/12/2022 10:09:21 OT (0D 0H 5M ago)
SteffiAssassin05/12/2022 10:09:21 OT (0D 0H 5M ago)
YunianAssassin05/12/2022 10:09:21 OT (0D 0H 5M ago)
EnergyAssassin05/12/2022 10:09:21 OT (0D 0H 5M ago)
HuertaAssassin05/12/2022 10:09:21 OT (0D 0H 5M ago)
MarcelAssassin05/12/2022 10:09:21 OT (0D 0H 5M ago)
BarziniAssassin05/12/2022 10:09:21 OT (0D 0H 5M ago)
DutyAssassin05/12/2022 10:09:21 OT (0D 0H 5M ago)
CharlesAssassin05/12/2022 10:09:21 OT (0D 0H 5M ago)
ColaAssassin05/12/2022 10:09:21 OT (0D 0H 5M ago)
SergioAssassin05/12/2022 10:09:21 OT (0D 0H 5M ago)
FeelAssassin05/12/2022 10:09:21 OT (0D 0H 5M ago)
LeonAssassin05/12/2022 10:09:21 OT (0D 0H 5M ago)
LudovicAssassin05/12/2022 10:09:21 OT (0D 0H 5M ago)
BolivarAssassin05/12/2022 10:09:21 OT (0D 0H 5M ago)
GomezAssassin05/12/2022 10:09:21 OT (0D 0H 5M ago)
RobbieAssassin05/12/2022 10:09:21 OT (0D 0H 5M ago)
JezebelAssassin05/12/2022 10:09:21 OT (0D 0H 5M ago)
NeoAssassin05/12/2022 10:09:21 OT (0D 0H 5M ago)
AlreadydiedAssassin05/12/2022 10:09:21 OT (0D 0H 5M ago)
MrantoAssassin05/12/2022 10:09:21 OT (0D 0H 5M ago)
KendrickAssassin05/12/2022 10:09:21 OT (0D 0H 5M ago)
SetAssassin05/12/2022 10:09:21 OT (0D 0H 5M ago)
PantrickAssassin05/12/2022 10:09:21 OT (0D 0H 5M ago)
VelaAssassin05/12/2022 10:09:21 OT (0D 0H 5M ago)
GamerAssassin05/12/2022 10:09:21 OT (0D 0H 5M ago)
SemyAssassin05/12/2022 10:09:21 OT (0D 0H 5M ago)
ZaynumAssassin05/12/2022 10:09:21 OT (0D 0H 5M ago)
HotAssassin05/12/2022 10:09:21 OT (0D 0H 5M ago)
LyricaAssassin05/12/2022 10:09:21 OT (0D 0H 5M ago)
DarrickAssassin05/12/2022 10:09:21 OT (0D 0H 5M ago)
BlackAssassin05/12/2022 10:09:21 OT (0D 0H 5M ago)
AomLocal Chief01/12/2022 21:27:07 OT (3D 12H 47M ago)
WesLocal Chief01/12/2022 21:42:30 OT (3D 12H 31M ago)
ChicagoLocal Chief01/12/2022 22:59:08 OT (3D 11H 15M ago)
UhuLocal Chief03/12/2022 10:20:24 OT (1D 23H 54M ago)
BurberyLocal Chief03/12/2022 21:05:05 OT (1D 13H 9M ago)
HeinzLocal Chief04/12/2022 19:22:36 OT (0D 14H 51M ago)
HellLocal Chief04/12/2022 20:37:27 OT (0D 13H 36M ago)
AnnadelveyLocal Chief04/12/2022 22:32:05 OT (0D 11H 42M ago)
AttenttLocal Chief05/12/2022 01:16:05 OT (0D 8H 58M ago)
SekizLocal Chief05/12/2022 03:23:12 OT (0D 6H 51M ago)
RamoneLocal Chief05/12/2022 03:52:04 OT (0D 6H 22M ago)
JigglypuffLocal Chief05/12/2022 06:12:06 OT (0D 4H 2M ago)
KlaartjeLocal Chief05/12/2022 06:23:12 OT (0D 3H 51M ago)
PokercodeLocal Chief05/12/2022 08:28:06 OT (0D 1H 46M ago)
MagsafeLocal Chief05/12/2022 08:37:18 OT (0D 1H 37M ago)
PanicLocal Chief05/12/2022 08:57:21 OT (0D 1H 17M ago)
JimLocal Chief05/12/2022 09:25:22 OT (0D 0H 49M ago)
NmnLocal Chief05/12/2022 09:54:06 OT (0D 0H 20M ago)
LorLocal Chief05/12/2022 10:01:22 OT (0D 0H 13M ago)
SeeLocal Chief05/12/2022 10:09:21 OT (0D 0H 5M ago)
WestLocal Chief05/12/2022 10:09:21 OT (0D 0H 5M ago)
BergLocal Chief05/12/2022 10:09:21 OT (0D 0H 5M ago)
OrucLocal Chief05/12/2022 10:09:21 OT (0D 0H 5M ago)
AyitLocal Chief05/12/2022 10:09:21 OT (0D 0H 5M ago)
StojLocal Chief05/12/2022 10:09:21 OT (0D 0H 5M ago)
OneLocal Chief05/12/2022 10:09:21 OT (0D 0H 5M ago)
MonacoLocal Chief05/12/2022 10:09:21 OT (0D 0H 5M ago)
GabriLocal Chief05/12/2022 10:09:21 OT (0D 0H 5M ago)
ParisLocal Chief05/12/2022 10:09:21 OT (0D 0H 5M ago)
EsrakiLocal Chief05/12/2022 10:09:21 OT (0D 0H 5M ago)
BungaLocal Chief05/12/2022 10:09:21 OT (0D 0H 5M ago)
CaulkerLocal Chief05/12/2022 10:09:21 OT (0D 0H 5M ago)
KekuLocal Chief05/12/2022 10:09:21 OT (0D 0H 5M ago)
HaktanLocal Chief05/12/2022 10:09:21 OT (0D 0H 5M ago)
KapinhoLocal Chief05/12/2022 10:09:21 OT (0D 0H 5M ago)
EvandroLocal Chief05/12/2022 10:09:21 OT (0D 0H 5M ago)
BryLocal Chief05/12/2022 10:09:21 OT (0D 0H 5M ago)
KerramiLocal Chief05/12/2022 10:09:21 OT (0D 0H 5M ago)
ErLocal Chief05/12/2022 10:09:21 OT (0D 0H 5M ago)
HaticeLocal Chief05/12/2022 10:09:21 OT (0D 0H 5M ago)
LifeLocal Chief05/12/2022 10:09:21 OT (0D 0H 5M ago)
AlinaLocal Chief05/12/2022 10:09:21 OT (0D 0H 5M ago)
AdilLocal Chief05/12/2022 10:09:21 OT (0D 0H 5M ago)
VieLocal Chief05/12/2022 10:09:21 OT (0D 0H 5M ago)
SymerLocal Chief05/12/2022 10:09:21 OT (0D 0H 5M ago)
BadnessLocal Chief05/12/2022 10:09:21 OT (0D 0H 5M ago)
VeletukLocal Chief05/12/2022 10:09:21 OT (0D 0H 5M ago)
LustralLocal Chief05/12/2022 10:09:21 OT (0D 0H 5M ago)
PlumbercaesaLocal Chief05/12/2022 10:09:21 OT (0D 0H 5M ago)
CodyLocal Chief05/12/2022 10:09:21 OT (0D 0H 5M ago)
OterLocal Chief05/12/2022 10:09:21 OT (0D 0H 5M ago)
SedaLocal Chief05/12/2022 10:09:21 OT (0D 0H 5M ago)
CatLocal Chief05/12/2022 10:09:21 OT (0D 0H 5M ago)
SlotLocal Chief05/12/2022 10:09:21 OT (0D 0H 5M ago)
DaveLocal Chief05/12/2022 10:09:21 OT (0D 0H 5M ago)
HerbertLocal Chief05/12/2022 10:09:21 OT (0D 0H 5M ago)
PortuguesaLocal Chief05/12/2022 10:09:21 OT (0D 0H 5M ago)
TeaLocal Chief05/12/2022 10:09:21 OT (0D 0H 5M ago)
TribbianiLocal Chief05/12/2022 10:09:21 OT (0D 0H 5M ago)
PairLocal Chief05/12/2022 10:09:21 OT (0D 0H 5M ago)
KurtkanLocal Chief05/12/2022 10:09:21 OT (0D 0H 5M ago)
TorkillLocal Chief05/12/2022 10:09:21 OT (0D 0H 5M ago)
CocomelonLocal Chief05/12/2022 10:09:21 OT (0D 0H 5M ago)
LocalLocal Chief05/12/2022 10:09:21 OT (0D 0H 5M ago)
CinLocal Chief05/12/2022 10:09:21 OT (0D 0H 5M ago)
DomLocal Chief05/12/2022 10:09:21 OT (0D 0H 5M ago)
BerlinLocal Chief05/12/2022 10:09:21 OT (0D 0H 5M ago)
NightLocal Chief05/12/2022 10:09:21 OT (0D 0H 5M ago)
GnsLocal Chief05/12/2022 10:09:21 OT (0D 0H 5M ago)
JohnwickLocal Chief05/12/2022 10:09:21 OT (0D 0H 5M ago)
BurakkLocal Chief05/12/2022 10:09:21 OT (0D 0H 5M ago)
VirmanLocal Chief05/12/2022 10:09:21 OT (0D 0H 5M ago)
TreavenLocal Chief05/12/2022 10:09:21 OT (0D 0H 5M ago)
VascottoLocal Chief05/12/2022 10:09:21 OT (0D 0H 5M ago)
KankLocal Chief05/12/2022 10:09:21 OT (0D 0H 5M ago)
ThekingLocal Chief05/12/2022 10:09:21 OT (0D 0H 5M ago)
HacomarLocal Chief05/12/2022 10:09:21 OT (0D 0H 5M ago)
DoutoraChief05/12/2022 08:01:19 OT (0D 2H 13M ago)
MaliceChief05/12/2022 10:09:21 OT (0D 0H 5M ago)
ExChief05/12/2022 10:09:21 OT (0D 0H 5M ago)
SharkChief05/12/2022 10:09:21 OT (0D 0H 5M ago)
VossChief05/12/2022 10:09:21 OT (0D 0H 5M ago)
AdamimChief05/12/2022 10:09:21 OT (0D 0H 5M ago)
DessasChief05/12/2022 10:09:21 OT (0D 0H 5M ago)
IsildurChief05/12/2022 10:09:21 OT (0D 0H 5M ago)
JrChief05/12/2022 10:09:21 OT (0D 0H 5M ago)
StarChief05/12/2022 10:09:21 OT (0D 0H 5M ago)
ZathanChief05/12/2022 10:09:21 OT (0D 0H 5M ago)
GinevraChief05/12/2022 10:09:21 OT (0D 0H 5M ago)